FW4143 Weather Reports


Display with metric or nautical units.
time (UTC)temp
F
wind
direction
speed
MPH
gust
MPH
rain 1hr
in
rain 24hr
in
rain mn
in
humidity
%
barometer
mb
20260507101604 60 177 8.0 17.0 0.00 0.00 0.00 1 1016.9
20260507101504 60 179 8.0 17.0 0.00 0.00 0.00 1 1016.9
20260507101425 60 180 8.0 17.0 0.00 0.00 0.00 1 1016.9
20260507101304 60 183 8.0 15.0 0.00 0.00 0.00 1 1016.9
20260507101204 60 184 8.0 15.0 0.00 0.00 0.00 1 1016.9
20260507101125 60 181 8.0 15.0 0.00 0.00 0.00 1 1017.0
20260507101004 60 182 8.0 15.0 0.00 0.00 0.00 1 1016.9
20260507100904 60 183 8.0 15.0 0.00 0.00 0.00 1 1016.9
20260507100804 60 184 7.0 14.0 0.00 0.00 0.00 1 1016.8
20260507100704 60 183 7.0 13.0 0.00 0.00 0.00 1 1016.6
20260507100604 60 182 7.0 13.0 0.00 0.00 0.00 1 1016.6
20260507100525 60 182 7.0 13.0 0.00 0.00 0.00 1 1016.7
20260507100425 60 180 7.0 13.0 0.00 0.00 0.00 1 1016.7
20260507100304 60 180 7.0 14.0 0.00 0.00 0.00 1 1016.7
20260507100204 60 179 6.0 14.0 0.00 0.00 0.00 1 1016.7
20260507100104 60 180 6.0 14.0 0.00 0.00 0.00 1 1016.7
20260507100004 60 181 5.0 14.0 0.00 0.00 0.00 1 1016.8
20260507095904 60 180 4.0 14.0 0.00 0.00 0.00 1 1016.8
20260507095804 60 179 4.0 14.0 0.00 0.00 0.00 1 1016.8
20260507095725 60 181 3.0 14.0 0.00 0.00 0.00 1 1016.7
20260507095604 60 181 2.0 14.0 0.00 0.00 0.00 1 1016.7
20260507095504 60 184 2.0 14.0 0.00 0.00 0.00 1 1016.7
20260507095425 60 186 1.0 14.0 0.00 0.00 0.00 1 1016.6
20260507095325 60 178 1.0 6.0 0.00 0.00 0.00 1 1016.6
20260507095204 60 181 1.0 9.0 0.00 0.00 0.00 1 1016.7
20260507095104 60 174 1.0 9.0 0.00 0.00 0.00 1 1016.8
20260507095004 60 176 1.0 9.0 0.00 0.00 0.00 1 1016.8
20260507094904 60 176 1.0 9.0 0.00 0.00 0.00 1 1016.9
20260507094804 60 181 1.0 9.0 0.00 0.00 0.00 1 1016.8
20260507094704 60 183 1.0 9.0 0.00 0.00 0.00 1 1016.8
20260507094604 60 183 1.0 9.0 0.00 0.00 0.00 1 1016.8
20260507094504 60 183 1.0 9.0 0.00 0.00 0.00 1 1016.8
20260507094404 60 182 1.0 9.0 0.00 0.00 0.00 1 1016.8
20260507094304 60 181 1.0 9.0 0.00 0.00 0.00 1 1016.8
20260507094204 60 178 0.0 8.0 0.00 0.00 0.00 1 1016.8
20260507094125 60 190 0.0 7.0 0.00 0.00 0.00 1 1016.8
20260507094004 60 189 0.0 7.0 0.00 0.00 0.00 1 1016.8
20260507093904 60 188 0.0 7.0 0.00 0.00 0.00 1 1016.8
20260507093804 60 181 0.0 6.0 0.00 0.00 0.00 1 1016.7
20260507093704 60 180 0.0 6.0 0.00 0.00 0.00 1 1016.8
20260507093604 60 173 0.0 6.0 0.00 0.00 0.00 1 1016.7
20260507093504 60 176 1.0 6.0 0.00 0.00 0.00 1 1016.8
20260507093404 60 180 1.0 9.0 0.00 0.00 0.00 1 1016.8
20260507093304 60 180 1.0 9.0 0.00 0.00 0.00 1 1016.9
20260507093204 60 180 1.0 9.0 0.00 0.00 0.00 1 1017.0
20260507093104 60 178 1.0 9.0 0.00 0.00 0.00 1 1017.0
20260507093004 60 178 1.0 9.0 0.00 0.00 0.00 1 1016.9
20260507092904 60 178 1.0 9.0 0.00 0.00 0.00 1 1016.9
20260507092804 60 178 1.0 9.0 0.00 0.00 0.00 1 1016.9
20260507092704 60 178 0.0 9.0 0.00 0.00 0.00 1 1016.9
20260507092604 60 183 0.0 9.0 0.00 0.00 0.00 1 1016.9
20260507092504 60 182 0.0 9.0 0.00 0.00 0.00 1 1017.0
20260507092404 60 178 0.0 4.0 0.00 0.00 0.00 1 1017.0
20260507092307 60 177 0.0 4.0 0.00 0.00 0.00 1 1017.1
20260507092204 60 178 0.0 4.0 0.00 0.00 0.00 1 1017.1
20260507092104 60 178 0.0 4.0 0.00 0.00 0.00 1 1017.1
20260507092004 60 174 0.0 4.0 0.00 0.00 0.00 1 1017.1
20260507091904 60 174 0.0 4.0 0.00 0.00 0.00 1 1017.0
20260507091825 60 176 0.0 3.0 0.00 0.00 0.00 1 1017.0
20260507091704 60 175 0.0 3.0 0.00 0.00 0.00 1 1016.9
20260507091604 60 182 0.0 2.0 0.00 0.00 0.00 1 1016.9
20260507091504 60 174 0.0 2.0 0.00 0.00 0.00 1 1016.9
20260507091404 60 168 0.0 1.0 0.00 0.00 0.00 1 1016.8
20260507091304 60 168 0.0 1.0 0.00 0.00 0.00 1 1016.7
20260507091204 60 173 0.0 1.0 0.00 0.00 0.00 1 1016.7
20260507091104 60 173 0.0 1.0 0.00 0.00 0.00 1 1016.5
20260507091004 60 173 0.0 1.0 0.00 0.00 0.00 1 1016.5
20260507090925 60 173 0.0 1.0 0.00 0.00 0.00 1 1016.5
20260507090804 60 173 0.0 2.0 0.00 0.00 0.00 1 1016.5
20260507090704 60 173 0.0 2.0 0.00 0.00 0.00 1 1016.4
20260507090604 60 162 0.0 2.0 0.00 0.00 0.00 1 1016.4
20260507090525 60 183 0.0 2.0 0.00 0.00 0.00 1 1016.4
20260507090404 60 183 0.0 2.0 0.00 0.00 0.00 1 1016.4
20260507090304 60 183 0.0 2.0 0.00 0.00 0.00 1 1016.3
20260507090225 60 0 0.0 2.0 0.00 0.00 0.00 1 1016.3
20260507090104 60 226 0.0 2.0 0.00 0.00 0.00 1 1016.3
20260507090005 60 226 0.0 2.0 0.00 0.00 0.00 1 1016.4
20260507085904 60 226 0.0 2.0 0.00 0.00 0.00 1 1016.5
20260507085805 60 226 0.0 1.0 0.00 0.00 0.00 1 1016.5
20260507085704 60 226 0.0 1.0 0.00 0.00 0.00 1 1016.5
20260507085604 60 184 0.0 1.0 0.00 0.00 0.00 1 1016.5
20260507085504 60 190 1.0 8.0 0.00 0.00 0.00 1 1016.3
20260507085404 60 193 1.0 8.0 0.00 0.00 0.00 1 1016.2
20260507085325 60 184 1.0 8.0 0.00 0.00 0.00 1 1016.0
20260507085204 60 181 2.0 8.0 0.00 0.00 0.00 1 1016.0
20260507085104 60 179 2.0 10.0 0.00 0.00 0.00 1 1016.0
20260507085004 60 179 3.0 10.0 0.00 0.00 0.00 1 1016.1
20260507084925 60 178 3.0 10.0 0.00 0.00 0.00 1 1016.2
20260507084805 60 179 3.0 10.0 0.00 0.00 0.00 1 1016.2
20260507084704 60 179 3.0 10.0 0.00 0.00 0.00 1 1016.1
20260507084604 60 179 3.0 10.0 0.00 0.00 0.00 1 1016.2
20260507084504 60 178 3.0 10.0 0.00 0.00 0.00 1 1016.1
20260507084404 60 175 2.0 10.0 0.00 0.00 0.00 1 1016.1
20260507084304 60 178 2.0 10.0 0.00 0.00 0.00 1 1016.2
20260507084204 60 178 2.0 10.0 0.00 0.00 0.00 1 1016.2
20260507084104 60 179 1.0 9.0 0.00 0.00 0.00 1 1016.2
20260507084004 60 180 1.0 6.0 0.00 0.00 0.00 1 1016.3
20260507083904 60 187 0.0 6.0 0.00 0.00 0.00 1 1016.4
20260507083825 60 178 0.0 6.0 0.00 0.00 0.00 1 1016.3
20260507083704 60 225 0.0 1.0 0.00 0.00 0.00 1 1016.3
20260507083604 60 172 0.0 7.0 0.00 0.00 0.00 1 1016.2
20260507083504 60 189 1.0 11.0 0.00 0.00 0.00 1 1016.2
20260507083404 60 197 1.0 11.0 0.00 0.00 0.00 1 1016.2
20260507083304 60 197 1.0 11.0 0.00 0.00 0.00 1 1016.2
20260507083204 60 197 2.0 11.0 0.00 0.00 0.00 1 1016.2
20260507083104 60 197 2.0 11.0 0.00 0.00 0.00 1 1016.2
20260507083004 60 197 2.0 11.0 0.00 0.00 0.00 1 1016.2
20260507082904 60 197 2.0 11.0 0.00 0.00 0.00 1 1016.1
20260507082804 60 197 2.0 11.0 0.00 0.00 0.00 1 1016.0
20260507082704 60 196 2.0 11.0 0.00 0.00 0.00 1 1015.9
20260507082625 60 196 1.0 11.0 0.00 0.00 0.00 1 1015.8
20260507082504 60 207 1.0 11.0 0.00 0.00 0.00 1 1015.7
20260507082404 60 194 0.0 6.0 0.00 0.00 0.00 1 1015.7
20260507082306 60 197 0.0 6.0 0.00 0.00 0.00 1 1015.6
20260507082204 60 194 0.0 6.0 0.00 0.00 0.00 1 1015.7
20260507082104 60 194 0.0 4.0 0.00 0.00 0.00 1 1015.8
20260507082004 60 186 0.0 4.0 0.00 0.00 0.00 1 1015.8
20260507081904 60 195 0.0 4.0 0.00 0.00 0.00 1 1015.9
20260507081804 60 190 0.0 4.0 0.00 0.00 0.00 1 1015.9
20260507081705 60 191 0.0 4.0 0.00 0.00 0.00 1 1015.9
20260507081625 60 191 0.0 4.0 0.00 0.00 0.00 1 1015.7
20260507081504 60 191 0.0 4.0 0.00 0.00 0.00 1 1015.7
20260507081404 60 191 0.0 4.0 0.00 0.00 0.00 1 1015.7
20260507081304 60 189 0.0 4.0 0.00 0.00 0.00 1 1015.7
20260507081225 60 190 0.0 4.0 0.00 0.00 0.00 1 1015.6
20260507081104 60 188 0.0 4.0 0.00 0.00 0.00 1 1015.6
20260507081004 60 191 0.0 4.0 0.00 0.00 0.00 1 1015.6
20260507080904 60 175 0.0 3.0 0.00 0.00 0.00 1 1015.7
20260507080804 60 185 0.0 3.0 0.00 0.00 0.00 1 1015.7
20260507080704 60 193 0.0 3.0 0.00 0.00 0.00 1 1015.7
20260507080625 61 193 0.0 3.0 0.00 0.00 0.00 1 1015.9
20260507080504 61 193 0.0 3.0 0.00 0.00 0.00 1 1016.0
20260507080404 61 202 0.0 3.0 0.00 0.00 0.00 1 1016.1
20260507080304 61 202 0.0 3.0 0.00 0.00 0.00 1 1016.2
20260507080204 61 197 0.0 3.0 0.00 0.00 0.00 1 1016.1
20260507080125 61 197 0.0 3.0 0.00 0.00 0.00 1 1016.0
20260507080004 61 200 0.0 3.0 0.00 0.00 0.00 1 1015.8
20260507075904 61 200 0.0 3.0 0.00 0.00 0.00 1 1015.7
20260507075804 61 204 0.0 3.0 0.00 0.00 0.00 1 1015.5
20260507075704 61 202 0.0 3.0 0.00 0.00 0.00 1 1015.4
20260507075604 61 198 0.0 3.0 0.00 0.00 0.00 1 1015.3
20260507075504 61 198 0.0 3.0 0.00 0.00 0.00 1 1015.3
20260507075404 61 195 0.0 3.0 0.00 0.00 0.00 1 1015.4
20260507075306 61 198 0.0 3.0 0.00 0.00 0.00 1 1015.4
20260507075204 61 200 0.0 3.0 0.00 0.00 0.00 1 1015.4
20260507075125 61 210 0.0 6.0 0.00 0.00 0.00 1 1015.4
20260507075025 61 210 0.0 6.0 0.00 0.00 0.00 1 1015.4
20260507074925 61 210 0.0 6.0 0.00 0.00 0.00 1 1015.4
20260507074804 61 208 0.0 6.0 0.00 0.00 0.00 1 1015.4
20260507074704 61 210 0.0 6.0 0.00 0.00 0.00 1 1015.4
20260507074604 61 218 0.0 6.0 0.00 0.00 0.00 1 1015.4
20260507074504 61 218 0.0 6.0 0.00 0.00 0.00 1 1015.4
20260507074404 61 218 0.0 6.0 0.00 0.00 0.00 1 1015.4
20260507074325 61 218 0.0 6.0 0.00 0.00 0.00 1 1015.4
20260507074225 61 223 0.0 6.0 0.00 0.00 0.00 1 1015.5
20260507074104 61 218 0.0 5.0 0.00 0.00 0.00 1 1015.5
20260507074004 61 220 0.0 5.0 0.00 0.00 0.00 1 1015.5
20260507073904 61 217 0.0 5.0 0.00 0.00 0.00 1 1015.7
20260507073804 61 216 0.0 5.0 0.00 0.00 0.00 1 1015.8
20260507073726 61 213 0.0 5.0 0.00 0.00 0.00 1 1015.9
20260507073604 61 214 0.0 5.0 0.00 0.00 0.00 1 1015.9
20260507073525 61 214 0.0 5.0 0.00 0.00 0.00 1 1015.8
20260507073404 61 205 0.0 6.0 0.00 0.00 0.00 1 1015.7
20260507073304 61 205 0.0 6.0 0.00 0.00 0.00 1 1015.5
20260507073225 61 205 0.0 6.0 0.00 0.00 0.00 1 1015.5
20260507073104 61 204 0.0 6.0 0.00 0.00 0.00 1 1015.5
20260507073004 61 202 0.0 6.0 0.00 0.00 0.00 1 1015.5
20260507072904 61 201 0.0 6.0 0.00 0.00 0.00 1 1015.5
20260507072825 61 201 0.0 6.0 0.00 0.00 0.00 1 1015.5
20260507072704 61 200 0.0 6.0 0.00 0.00 0.00 1 1015.6
20260507072604 61 192 0.0 6.0 0.00 0.00 0.00 1 1015.7
20260507072504 61 231 0.0 4.0 0.00 0.00 0.00 1 1015.7
20260507072404 61 229 0.0 4.0 0.00 0.00 0.00 1 1015.8
20260507072325 61 229 0.0 4.0 0.00 0.00 0.00 1 1015.8
20260507072204 61 229 0.0 4.0 0.00 0.00 0.00 1 1015.8
20260507072125 61 229 0.0 4.0 0.00 0.00 0.00 1 1015.7
20260507072004 61 229 0.0 4.0 0.00 0.00 0.00 1 1015.7
20260507071904 61 230 0.0 4.0 0.00 0.00 0.00 1 1015.7
20260507071804 61 227 0.0 4.0 0.00 0.00 0.00 1 1015.7
20260507071704 61 224 0.0 4.0 0.00 0.00 0.00 1 1015.6
20260507071604 61 224 0.0 4.0 0.00 0.00 0.00 1 1015.7
20260507071504 61 208 0.0 1.0 0.00 0.00 0.00 1 1015.7
20260507071404 61 207 0.0 1.0 0.00 0.00 0.00 1 1015.9
20260507071304 61 208 0.0 1.0 0.00 0.00 0.00 1 1016.0
20260507071225 61 208 0.0 1.0 0.00 0.00 0.00 1 1016.1
20260507071104 61 208 0.0 1.0 0.00 0.00 0.00 1 1016.1
20260507071004 61 209 0.0 2.0 0.00 0.00 0.00 1 1016.2
20260507070904 61 209 0.0 2.0 0.00 0.00 0.00 1 1016.1
20260507070825 61 209 0.0 2.0 0.00 0.00 0.00 1 1016.1
20260507070725 61 208 0.0 2.0 0.00 0.00 0.00 1 1016.0
20260507070604 61 205 0.0 2.0 0.00 0.00 0.00 1 1016.0
20260507070504 61 205 0.0 2.0 0.00 0.00 0.00 1 1015.9
20260507070404 61 211 0.0 2.0 0.00 0.00 0.00 1 1015.8
20260507070325 61 213 0.0 2.0 0.00 0.00 0.00 1 1015.8
20260507070225 61 213 0.0 2.0 0.00 0.00 0.00 1 1015.8
20260507070125 61 223 0.0 2.0 0.00 0.00 0.00 1 1015.8
20260507070008 62 216 0.0 4.0 0.00 0.00 0.00 1 1015.8
20260507065904 62 216 0.0 4.0 0.00 0.00 0.00 1 1015.8
20260507065804 62 216 0.0 4.0 0.00 0.00 0.00 1 1015.8
20260507065704 62 216 0.0 4.0 0.00 0.00 0.00 1 1015.8
20260507065604 62 212 0.0 4.0 0.00 0.00 0.00 1 1015.7
20260507065525 62 209 0.0 4.0 0.00 0.00 0.00 1 1015.6
20260507065425 62 209 0.0 4.0 0.00 0.00 0.00 1 1015.6
20260507065306 62 209 0.0 4.0 0.00 0.00 0.00 1 1015.4
20260507065204 62 212 0.0 4.0 0.00 0.00 0.00 1 1015.4
20260507065104 62 207 0.0 7.0 0.00 0.00 0.00 1 1015.3
20260507065004 62 206 0.0 7.0 0.00 0.00 0.00 1 1015.3
20260507064904 62 206 0.0 7.0 0.00 0.00 0.00 1 1015.3
20260507064804 62 207 0.0 7.0 0.00 0.00 0.00 1 1015.3
20260507064704 62 210 0.0 7.0 0.00 0.00 0.00 1 1015.3
20260507064604 62 210 0.0 7.0 0.00 0.00 0.00 1 1015.3
20260507064525 62 211 0.0 7.0 0.00 0.00 0.00 1 1015.3
20260507064425 62 211 0.0 7.0 0.00 0.00 0.00 1 1015.2
20260507064304 62 211 0.0 7.0 0.00 0.00 0.00 1 1015.0
20260507064204 62 211 0.0 7.0 0.00 0.00 0.00 1 1014.9
20260507064104 62 213 0.0 6.0 0.00 0.00 0.00 1 1014.8
20260507064004 62 215 0.0 6.0 0.00 0.00 0.00 1 1014.8
20260507063904 62 214 0.0 6.0 0.00 0.00 0.00 1 1014.8
20260507063804 62 215 0.0 6.0 0.00 0.00 0.00 1 1014.9
20260507063725 62 210 0.0 3.0 0.00 0.00 0.00 1 1015.0
20260507063625 62 209 0.0 3.0 0.00 0.00 0.00 1 1015.1
20260507063525 62 209 0.0 3.0 0.00 0.00 0.00 1 1015.2
20260507063404 62 209 0.0 3.0 0.00 0.00 0.00 1 1015.2
20260507063304 62 209 0.0 3.0 0.00 0.00 0.00 1 1015.3
20260507063204 62 205 0.0 3.0 0.00 0.00 0.00 1 1015.3
20260507063104 62 199 0.0 3.0 0.00 0.00 0.00 1 1015.3
20260507063004 62 209 0.0 6.0 0.00 0.00 0.00 1 1015.4
20260507062925 62 213 0.0 6.0 0.00 0.00 0.00 1 1015.4
20260507062804 62 213 0.0 6.0 0.00 0.00 0.00 1 1015.5
20260507062704 62 213 0.0 6.0 0.00 0.00 0.00 1 1015.5
20260507062604 62 213 0.0 6.0 0.00 0.00 0.00 1 1015.6
20260507062504 62 213 0.0 6.0 0.00 0.00 0.00 1 1015.7
20260507062425 62 212 0.0 6.0 0.00 0.00 0.00 1 1015.7
20260507062306 62 212 0.0 6.0 0.00 0.00 0.00 1 1015.7
20260507062225 62 211 0.0 6.0 0.00 0.00 0.00 1 1015.7
20260507062104 62 212 0.0 6.0 0.00 0.00 0.00 1 1015.7
20260507062004 62 209 0.0 5.0 0.00 0.00 0.00 1 1015.5
20260507061904 62 208 0.0 5.0 0.00 0.00 0.00 1 1015.5
20260507061804 62 207 0.0 5.0 0.00 0.00 0.00 1 1015.4
20260507061704 62 205 0.0 5.0 0.00 0.00 0.00 1 1015.3
20260507061604 62 204 0.0 5.0 0.00 0.00 0.00 1 1015.3
20260507061525 62 203 0.0 5.0 0.00 0.00 0.00 1 1015.3
20260507061404 62 200 0.0 3.0 0.00 0.00 0.00 1 1015.3
20260507061304 62 200 0.0 3.0 0.00 0.00 0.00 1 1015.4
20260507061204 62 202 0.0 3.0 0.00 0.00 0.00 1 1015.4
20260507061104 62 202 0.0 3.0 0.00 0.00 0.00 1 1015.4
20260507061004 62 202 0.0 3.0 0.00 0.00 0.00 1 1015.3
20260507060904 62 200 0.0 3.0 0.00 0.00 0.00 1 1015.3
20260507060804 62 201 0.0 3.0 0.00 0.00 0.00 1 1015.3
20260507060704 62 201 0.0 3.0 0.00 0.00 0.00 1 1015.3
20260507060604 62 201 0.0 3.0 0.00 0.00 0.00 1 1015.3
20260507060504 62 202 0.0 3.0 0.00 0.00 0.00 1 1015.3
20260507060404 62 200 0.0 3.0 0.00 0.00 0.00 1 1015.3
20260507060304 62 200 0.0 3.0 0.00 0.00 0.00 1 1015.4
20260507060225 62 201 0.0 3.0 0.00 0.00 0.00 1 1015.5
20260507060104 62 185 0.0 3.0 0.00 0.00 0.00 1 1015.5
20260507060004 62 185 0.0 2.0 0.00 0.00 0.00 1 1015.5
20260507055904 62 211 0.0 3.0 0.00 0.00 0.00 1 1015.5
20260507055804 62 212 0.0 3.0 0.00 0.00 0.00 1 1015.5
20260507055704 62 209 0.0 3.0 0.00 0.00 0.00 1 1015.6
20260507055604 62 204 0.0 3.0 0.00 0.00 0.00 1 1015.6
20260507055504 62 202 0.0 3.0 0.00 0.00 0.00 1 1015.6
20260507055404 62 203 0.0 4.0 0.00 0.00 0.00 1 1015.4
20260507055306 62 207 0.0 5.0 0.00 0.00 0.00 1 1015.4
20260507055225 62 207 0.0 5.0 0.00 0.00 0.00 1 1015.3
20260507055125 62 207 0.0 5.0 0.00 0.00 0.00 1 1015.3
20260507055004 62 207 0.0 5.0 0.00 0.00 0.00 1 1015.2
20260507054904 62 206 0.0 5.0 0.00 0.00 0.00 1 1015.2
20260507054804 62 205 0.0 5.0 0.00 0.00 0.00 1 1015.3
20260507054704 62 205 0.0 5.0 0.00 0.00 0.00 1 1015.3
20260507054604 62 211 0.0 5.0 0.00 0.00 0.00 1 1015.3
20260507054504 62 212 0.0 5.0 0.00 0.00 0.00 1 1015.2
20260507054425 62 211 0.0 5.0 0.00 0.00 0.00 1 1015.2
20260507054304 62 205 0.0 8.0 0.00 0.00 0.00 1 1015.2
20260507054204 62 205 0.0 8.0 0.00 0.00 0.00 2 1015.3
20260507054104 62 205 0.0 8.0 0.00 0.00 0.00 2 1015.4
20260507054004 62 205 0.0 8.0 0.00 0.00 0.00 3 1015.4
20260507053904 62 204 0.0 8.0 0.00 0.00 0.00 3 1015.4
20260507053825 62 204 0.0 8.0 0.00 0.00 0.00 3 1015.4
20260507053704 62 206 0.0 8.0 0.00 0.00 0.00 3 1015.3
20260507053605 62 204 0.0 8.0 0.00 0.00 0.00 3 1015.3
20260507053504 62 204 0.0 8.0 0.00 0.00 0.00 4 1015.2
20260507053404 62 202 0.0 8.0 0.00 0.00 0.00 4 1015.3
20260507053325 62 205 0.0 5.0 0.00 0.00 0.00 4 1015.2
20260507053204 62 205 0.0 5.0 0.00 0.00 0.00 4 1015.2
20260507053104 62 210 1.0 9.0 0.00 0.00 0.00 4 1015.2
20260507053004 62 206 1.0 9.0 0.00 0.00 0.00 5 1015.1
20260507052904 62 202 1.0 9.0 0.00 0.00 0.00 5 1015.1
20260507052804 62 203 1.0 9.0 0.00 0.00 0.00 5 1015.1
20260507052704 62 202 1.0 9.0 0.00 0.00 0.00 6 1015.1
20260507052604 62 201 1.0 9.0 0.00 0.00 0.00 6 1015.2
20260507052504 62 201 1.0 9.0 0.00 0.00 0.00 7 1015.2
20260507052404 62 197 1.0 9.0 0.00 0.00 0.00 7 1015.3
20260507052306 62 201 1.0 9.0 0.00 0.00 0.00 7 1015.3
20260507052204 62 200 1.0 9.0 0.00 0.00 0.00 8 1015.3
20260507052104 62 196 1.0 8.0 0.00 0.00 0.00 8 1015.3
20260507052004 62 197 1.0 8.0 0.00 0.00 0.00 8 1015.3
20260507051925 62 198 1.0 8.0 0.00 0.00 0.00 8 1015.2
20260507051825 62 198 1.0 8.0 0.00 0.00 0.00 8 1015.2
20260507051704 62 201 1.0 11.0 0.00 0.00 0.00 9 1015.2
20260507051625 62 197 1.0 11.0 0.00 0.00 0.00 9 1015.2
20260507051504 62 196 1.0 11.0 0.00 0.00 0.00 9 1015.1
20260507051404 62 199 1.0 11.0 0.00 0.00 0.00 9 1015.1
20260507051325 62 198 1.0 11.0 0.00 0.00 0.00 9 1015.1
20260507051204 62 194 1.0 11.0 0.00 0.00 0.00 9 1015.1
20260507051104 62 193 1.0 11.0 0.00 0.00 0.00 10 1015.1
20260507051025 62 194 1.0 11.0 0.00 0.00 0.00 10 1015.2
20260507050904 62 195 1.0 11.0 0.00 0.00 0.00 10 1015.2
20260507050804 62 195 1.0 11.0 0.00 0.00 0.00 10 1015.2
20260507050725 62 189 2.0 11.0 0.00 0.00 0.00 10 1015.2
20260507050604 62 189 2.0 13.0 0.00 0.00 0.00 10 1015.1
20260507050504 62 190 2.0 13.0 0.00 0.00 0.00 10 1015.2
20260507050404 63 190 2.0 13.0 0.00 0.00 0.00 10 1015.1
20260507050304 63 192 2.0 13.0 0.00 0.00 0.00 10 1015.2
20260507050204 63 192 2.0 13.0 0.00 0.00 0.00 10 1015.2
20260507050104 63 193 2.0 13.0 0.00 0.00 0.00 10 1015.2
20260507050004 63 193 1.0 13.0 0.00 0.00 0.00 10 1015.3
20260507045904 63 192 1.0 13.0 0.00 0.00 0.00 10 1015.2
20260507045804 63 190 1.0 13.0 0.00 0.00 0.00 10 1015.2
20260507045725 63 191 1.0 13.0 0.00 0.00 0.00 10 1015.2
20260507045604 63 193 1.0 8.0 0.00 0.00 0.00 9 1015.2
20260507045504 63 192 1.0 8.0 0.00 0.00 0.00 9 1015.3
20260507045404 63 189 1.0 8.0 0.00 0.00 0.00 9 1015.3
20260507045306 63 188 2.0 11.0 0.00 0.00 0.00 7 1015.4
20260507045204 63 190 3.0 11.0 0.00 0.00 0.00 7 1015.5
20260507045104 63 190 3.0 13.0 0.00 0.00 0.00 6 1015.5
20260507045004 63 188 4.0 13.0 0.00 0.00 0.00 6 1015.5
20260507044904 63 187 4.0 13.0 0.00 0.00 0.00 5 1015.4
20260507044804 63 187 4.0 13.0 0.00 0.00 0.00 5 1015.5
20260507044704 63 188 4.0 13.0 0.00 0.00 0.00 4 1015.5
20260507044604 63 188 4.0 13.0 0.00 0.00 0.00 4 1015.5
20260507044504 63 188 5.0 13.0 0.00 0.00 0.00 4 1015.5
20260507044404 63 186 5.0 13.0 0.00 0.00 0.00 4 1015.5
20260507044304 63 184 5.0 13.0 0.00 0.00 0.00 4 1015.6
20260507044204 63 180 4.0 13.0 0.00 0.00 0.00 4 1015.7
20260507044104 63 177 4.0 12.0 0.00 0.00 0.00 3 1015.7
20260507044004 63 176 4.0 12.0 0.00 0.00 0.00 2 1015.7
20260507043904 63 178 4.0 12.0 0.00 0.00 0.00 1 1015.7
20260507043825 63 180 5.0 12.0 0.00 0.00 0.00 1 1015.6
20260507043704 63 180 5.0 12.0 0.00 0.00 0.00 1 1015.5
20260507043604 63 181 6.0 12.0 0.00 0.00 0.00 1 1015.5
20260507043504 63 181 6.0 12.0 0.00 0.00 0.00 1 1015.5
20260507043404 63 182 6.0 12.0 0.00 0.00 0.00 1 1015.5
20260507043304 63 182 5.0 12.0 0.00 0.00 0.00 1 1015.4
20260507043204 63 185 5.0 12.0 0.00 0.00 0.00 1 1015.4
20260507043125 63 186 4.0 12.0 0.00 0.00 0.00 1 1015.3
20260507043004 63 189 5.0 12.0 0.00 0.00 0.00 1 1015.3
20260507042925 63 191 4.0 12.0 0.00 0.00 0.00 1 1015.2
20260507042804 63 192 4.0 12.0 0.00 0.00 0.00 1 1015.2
20260507042704 63 192 5.0 13.0 0.00 0.00 0.00 1 1015.2
20260507042604 63 190 4.0 13.0 0.00 0.00 0.00 1 1015.1
20260507042504 63 191 3.0 13.0 0.00 0.00 0.00 1 1015.2
20260507042404 63 192 3.0 13.0 0.00 0.00 0.00 1 1015.1
20260507042306 63 188 4.0 13.0 0.00 0.00 0.00 1 1015.0
20260507042225 63 188 5.0 13.0 0.00 0.00 0.00 1 1015.0
20260507042104 63 187 5.0 13.0 0.00 0.00 0.00 1 1015.0
20260507042025 63 185 5.0 13.0 0.00 0.00 0.00 1 1015.0
20260507041904 63 182 5.0 13.0 0.00 0.00 0.00 1 1015.1
20260507041804 63 181 4.0 13.0 0.00 0.00 0.00 1 1015.2
20260507041725 63 180 3.0 12.0 0.00 0.00 0.00 1 1015.2
20260507041604 63 179 3.0 12.0 0.00 0.00 0.00 1 1015.3
20260507041504 63 179 3.0 12.0 0.00 0.00 0.00 1 1015.3
20260507041404 63 179 3.0 12.0 0.00 0.00 0.00 1 1015.2
20260507041304 63 182 2.0 12.0 0.00 0.00 0.00 1 1015.3
20260507041204 63 181 2.0 12.0 0.00 0.00 0.00 1 1015.2
20260507041104 63 182 1.0 12.0 0.00 0.00 0.00 1 1015.2
20260507041004 63 182 1.0 7.0 0.00 0.00 0.00 1 1015.1
20260507040904 63 186 0.0 7.0 0.00 0.00 0.00 1 1015.1
20260507040825 63 185 0.0 7.0 0.00 0.00 0.00 1 1015.2
20260507040705 63 180 0.0 6.0 0.00 0.00 0.00 1 1015.3
20260507040604 63 183 0.0 6.0 0.00 0.00 0.00 1 1015.3
20260507040504 63 180 0.0 4.0 0.00 0.00 0.00 1 1015.4
20260507040425 63 180 0.0 4.0 0.00 0.00 0.00 1 1015.5
20260507040304 63 178 0.0 4.0 0.00 0.00 0.00 1 1015.4
20260507040204 63 178 0.0 4.0 0.00 0.00 0.00 1 1015.4
20260507040125 63 179 0.0 4.0 0.00 0.00 0.00 1 1015.4
20260507040025 63 179 0.0 4.0 0.00 0.00 0.00 1 1015.4
20260507035904 63 179 0.0 3.0 0.00 0.00 0.00 1 1015.4
20260507035804 63 175 0.0 3.0 0.00 0.00 0.00 1 1015.3
20260507035704 63 175 0.0 3.0 0.00 0.00 0.00 1 1015.4
20260507035625 63 175 0.0 3.0 0.00 0.00 0.00 1 1015.5
20260507035504 63 184 0.0 1.0 0.00 0.00 0.00 1 1015.5
20260507035404 63 195 0.0 2.0 0.00 0.00 0.00 1 1015.5
20260507035306 63 195 0.0 2.0 0.00 0.00 0.00 1 1015.5
20260507035225 63 195 0.0 2.0 0.00 0.00 0.00 1 1015.4
20260507035104 63 200 0.0 2.0 0.00 0.00 0.00 1 1015.4
20260507035004 63 193 0.0 3.0 0.00 0.00 0.00 1 1015.4
20260507034904 63 184 0.0 3.0 0.00 0.00 0.00 1 1015.4
20260507034825 63 187 1.0 10.0 0.00 0.00 0.00 1 1015.3
20260507034725 63 180 1.0 12.0 0.00 0.00 0.00 1 1015.3
20260507034604 63 182 2.0 12.0 0.00 0.00 0.00 1 1015.2
20260507034504 63 178 2.0 12.0 0.00 0.00 0.00 1 1015.2
20260507034404 63 179 3.0 12.0 0.00 0.00 0.00 1 1015.3
20260507034304 63 176 3.0 12.0 0.00 0.00 0.00 1 1015.3
20260507034204 63 173 3.0 12.0 0.00 0.00 0.00 1 1015.3
20260507034125 63 173 4.0 12.0 0.00 0.00 0.00 1 1015.2
20260507034004 63 174 5.0 12.0 0.00 0.00 0.00 1 1015.1
20260507033904 63 175 5.0 12.0 0.00 0.00 0.00 1 1015.0
20260507033804 63 176 5.0 12.0 0.00 0.00 0.00 1 1014.9
20260507033704 63 175 6.0 13.0 0.00 0.00 0.00 1 1015.0
20260507033604 63 176 6.0 13.0 0.00 0.00 0.00 1 1015.1
20260507033504 63 177 6.0 13.0 0.00 0.00 0.00 1 1015.1
20260507033404 63 177 7.0 13.0 0.00 0.00 0.00 2 1015.2
20260507033304 63 178 7.0 13.0 0.00 0.00 0.00 2 1015.1
20260507033204 63 179 7.0 13.0 0.00 0.00 0.00 2 1015.1
20260507033104 63 179 7.0 13.0 0.00 0.00 0.00 3 1015.0
20260507033004 63 180 7.0 13.0 0.00 0.00 0.00 3 1015.0
20260507032904 63 181 7.0 13.0 0.00 0.00 0.00 3 1015.1
20260507032804 63 182 7.0 13.0 0.00 0.00 0.00 4 1015.1
20260507032704 63 180 6.0 12.0 0.00 0.00 0.00 3 1015.1
20260507032604 63 179 6.0 12.0 0.00 0.00 0.00 4 1015.2
20260507032525 63 178 6.0 13.0 0.00 0.00 0.00 3 1015.2
20260507032404 63 178 6.0 13.0 0.00 0.00 0.00 4 1015.3
20260507032306 63 177 6.0 13.0 0.00 0.00 0.00 4 1015.3
20260507032204 63 177 5.0 13.0 0.00 0.00 0.00 4 1015.3
20260507032104 63 177 5.0 13.0 0.00 0.00 0.00 4 1015.2
20260507032025 63 176 5.0 13.0 0.00 0.00 0.00 4 1015.3
20260507031904 63 170 4.0 13.0 0.00 0.00 0.00 4 1015.3
20260507031804 63 168 3.0 13.0 0.00 0.00 0.00 4 1015.4
20260507031704 63 170 3.0 13.0 0.00 0.00 0.00 5 1015.4
20260507031604 63 169 3.0 13.0 0.00 0.00 0.00 5 1015.3
20260507031525 63 169 3.0 12.0 0.00 0.00 0.00 4 1015.2
20260507031404 63 169 3.0 11.0 0.00 0.00 0.00 4 1015.1
20260507031304 63 171 3.0 11.0 0.00 0.00 0.00 4 1015.1
20260507031204 63 172 3.0 11.0 0.00 0.00 0.00 5 1015.0
20260507031104 63 174 4.0 11.0 0.00 0.00 0.00 4 1014.9
20260507031004 63 176 4.0 11.0 0.00 0.00 0.00 4 1014.8
20260507030904 63 177 4.0 10.0 0.00 0.00 0.00 4 1014.9
20260507030804 63 177 4.0 10.0 0.00 0.00 0.00 4 1014.9
20260507030704 63 176 4.0 10.0 0.00 0.00 0.00 4 1014.9
20260507030604 63 179 4.0 10.0 0.00 0.00 0.00 3 1015.0
20260507030504 63 179 4.0 10.0 0.00 0.00 0.00 3 1015.0
20260507030404 63 180 4.0 11.0 0.00 0.00 0.00 4 1015.0
20260507030304 63 179 4.0 11.0 0.00 0.00 0.00 3 1015.0
20260507030204 63 179 4.0 11.0 0.00 0.00 0.00 4 1015.0
20260507030125 63 178 3.0 11.0 0.00 0.00 0.00 4 1015.0
20260507030004 63 178 3.0 11.0 0.00 0.00 0.00 3 1015.0
20260507025904 63 179 3.0 11.0 0.00 0.00 0.00 3 1015.0
20260507025804 63 179 3.0 11.0 0.00 0.00 0.00 2 1014.8
20260507025704 63 181 2.0 11.0 0.00 0.00 0.00 3 1014.7
20260507025604 63 177 2.0 11.0 0.00 0.00 0.00 2 1014.6
20260507025504 63 174 1.0 11.0 0.00 0.00 0.00 1 1014.6
20260507025404 63 166 1.0 10.0 0.00 0.00 0.00 1 1014.7
20260507025325 63 164 1.0 10.0 0.00 0.00 0.00 1 1014.8
20260507025204 63 166 2.0 6.0 0.00 0.00 0.00 1 1014.9
20260507025104 63 162 2.0 6.0 0.00 0.00 0.00 1 1015.0
20260507025004 63 159 2.0 8.0 0.00 0.00 0.00 1 1015.0
20260507024904 63 156 2.0 10.0 0.00 0.00 0.00 1 1015.0
20260507024804 63 161 3.0 10.0 0.00 0.00 0.00 1 1015.1
20260507024725 63 159 3.0 10.0 0.00 0.00 0.00 1 1015.0
20260507024604 63 162 4.0 10.0 0.00 0.00 0.00 1 1015.0
20260507024504 63 162 4.0 10.0 0.00 0.00 0.00 1 1015.0
20260507024404 63 164 4.0 10.0 0.00 0.00 0.00 1 1015.0
20260507024304 63 164 4.0 10.0 0.00 0.00 0.00 1 1015.0
20260507024204 63 164 4.0 10.0 0.00 0.00 0.00 1 1014.9
20260507024125 63 166 4.0 10.0 0.00 0.00 0.00 1 1014.8
20260507024025 63 166 4.0 10.0 0.00 0.00 0.00 1 1014.7
20260507023904 63 165 4.0 12.0 0.00 0.00 0.00 1 1014.6
20260507023825 63 163 5.0 12.0 0.00 0.00 0.00 1 1014.6
20260507023725 63 163 4.0 12.0 0.00 0.00 0.00 1 1014.6
20260507023604 63 161 4.0 12.0 0.00 0.00 0.00 1 1014.7
20260507023504 63 161 4.0 12.0 0.00 0.00 0.00 1 1014.7
20260507023404 63 160 3.0 12.0 0.00 0.00 0.00 2 1014.7
20260507023304 63 159 3.0 12.0 0.00 0.00 0.00 2 1014.6
20260507023204 63 158 3.0 12.0 0.00 0.00 0.00 2 1014.5
20260507023104 63 157 2.0 12.0 0.00 0.00 0.00 2 1014.4
20260507023004 63 159 2.0 12.0 0.00 0.00 0.00 3 1014.5
20260507022904 63 163 1.0 12.0 0.00 0.00 0.00 3 1014.4
20260507022804 63 170 1.0 10.0 0.00 0.00 0.00 2 1014.4
20260507022725 63 174 1.0 8.0 0.00 0.00 0.00 2 1014.5
20260507022604 63 175 2.0 8.0 0.00 0.00 0.00 2 1014.5
20260507022504 63 173 3.0 9.0 0.00 0.00 0.00 2 1014.5
20260507022404 63 172 3.0 12.0 0.00 0.00 0.00 3 1014.4
20260507022306 63 172 3.0 12.0 0.00 0.00 0.00 3 1014.4
20260507022204 63 172 3.0 12.0 0.00 0.00 0.00 3 1014.4
20260507022103 63 172 3.0 12.0 0.00 0.00 0.00 3 1014.3
20260507022004 63 172 3.0 12.0 0.00 0.00 0.00 3 1014.4
20260507021904 63 172 2.0 12.0 0.00 0.00 0.00 3 1014.3
20260507021804 63 171 2.0 12.0 0.00 0.00 0.00 4 1014.3
20260507021704 63 168 2.0 12.0 0.00 0.00 0.00 4 1014.3
20260507021604 63 164 2.0 12.0 0.00 0.00 0.00 5 1014.4
20260507021504 63 162 1.0 12.0 0.00 0.00 0.00 4 1014.3
20260507021425 63 160 1.0 11.0 0.00 0.00 0.00 4 1014.3
20260507021304 63 158 1.0 11.0 0.00 0.00 0.00 4 1014.3
20260507021204 63 164 1.0 11.0 0.00 0.00 0.00 3 1014.4
20260507021104 63 164 1.0 11.0 0.00 0.00 0.00 4 1014.4
20260507021004 63 164 1.0 11.0 0.00 0.00 0.00 4 1014.4
20260507020904 63 164 1.0 11.0 0.00 0.00 0.00 4 1014.4
20260507020804 63 162 1.0 11.0 0.00 0.00 0.00 4 1014.5
20260507020704 63 167 2.0 11.0 0.00 0.00 0.00 4 1014.4
20260507020625 63 170 2.0 11.0 0.00 0.00 0.00 4 1014.4
20260507020504 63 170 2.0 11.0 0.00 0.00 0.00 4 1014.4
20260507020404 63 170 2.0 11.0 0.00 0.00 0.00 4 1014.3
20260507020304 63 170 2.0 11.0 0.00 0.00 0.00 5 1014.2
20260507020204 63 168 1.0 11.0 0.00 0.00 0.00 4 1014.2
20260507020104 63 167 1.0 11.0 0.00 0.00 0.00 5 1014.1
20260507020004 63 167 1.0 11.0 0.00 0.00 0.00 4 1014.0
20260507015904 63 167 1.0 11.0 0.00 0.00 0.00 5 1014.0
20260507015825 63 170 1.0 11.0 0.00 0.00 0.00 5 1013.9
20260507015704 63 163 0.0 10.0 0.00 0.00 0.00 6 1013.8
20260507015604 63 156 0.0 5.0 0.00 0.00 0.00 6 1013.9
20260507015504 63 157 0.0 5.0 0.00 0.00 0.00 6 1013.8
20260507015404 63 157 0.0 5.0 0.00 0.00 0.00 6 1013.9
20260507015306 63 157 0.0 5.0 0.00 0.00 0.00 7 1013.9
20260507015204 63 156 0.0 4.0 0.00 0.00 0.00 7 1013.8
20260507015104 63 165 0.0 2.0 0.00 0.00 0.00 7 1013.8
20260507015025 63 169 0.0 2.0 0.00 0.00 0.00 7 1013.8
20260507014904 63 155 0.0 2.0 0.00 0.00 0.00 7 1013.7
20260507014804 63 158 0.0 2.0 0.00 0.00 0.00 6 1013.8
20260507014704 63 156 0.0 2.0 0.00 0.00 0.00 7 1013.7
20260507014604 63 157 0.0 5.0 0.00 0.00 0.00 6 1013.8
20260507014525 63 167 0.0 5.0 0.00 0.00 0.00 7 1013.9
20260507014404 63 164 0.0 5.0 0.00 0.00 0.00 7 1014.0
20260507014304 63 164 0.0 5.0 0.00 0.00 0.00 7 1014.0
20260507014204 63 164 0.0 5.0 0.00 0.00 0.00 7 1013.9
20260507014104 63 164 0.0 5.0 0.00 0.00 0.00 7 1013.9
20260507014004 63 164 0.0 5.0 0.00 0.00 0.00 8 1013.8
20260507013904 63 164 0.0 5.0 0.00 0.00 0.00 9 1013.8
20260507013804 63 164 0.0 5.0 0.00 0.00 0.00 9 1013.8
20260507013704 63 164 0.0 5.0 0.00 0.00 0.00 10 1013.8
20260507013604 63 166 0.0 7.0 0.00 0.00 0.00 9 1013.6
20260507013504 63 166 0.0 7.0 0.00 0.00 0.00 9 1013.5
20260507013404 64 153 0.0 7.0 0.00 0.00 0.00 9 1013.4
20260507013304 63 153 0.0 7.0 0.00 0.00 0.00 9 1013.4
20260507013204 64 179 0.0 7.0 0.00 0.00 0.00 8 1013.4
20260507013104 64 179 0.0 7.0 0.00 0.00 0.00 8 1013.4
20260507013004 64 179 0.0 7.0 0.00 0.00 0.00 8 1013.5
20260507012904 64 179 0.0 7.0 0.00 0.00 0.00 8 1013.5
20260507012804 64 175 0.0 7.0 0.00 0.00 0.00 8 1013.4
20260507012704 63 175 0.0 7.0 0.00 0.00 0.00 8 1013.4
20260507012604 64 175 0.0 10.0 0.00 0.00 0.00 9 1013.3
20260507012504 63 173 0.0 10.0 0.00 0.00 0.00 9 1013.3
20260507012404 64 174 0.0 10.0 0.00 0.00 0.00 9 1013.4
20260507012306 64 171 0.0 10.0 0.00 0.00 0.00 9 1013.5
20260507012204 64 156 0.0 10.0 0.00 0.00 0.00 9 1013.4
20260507012104 64 152 0.0 10.0 0.00 0.00 0.00 8 1013.4
20260507012025 64 152 0.0 10.0 0.00 0.00 0.00 8 1013.3
20260507011904 63 153 0.0 10.0 0.00 0.00 0.00 9 1013.3
20260507011804 64 152 0.0 10.0 0.00 0.00 0.00 9 1013.2
20260507011704 64 151 1.0 10.0 0.00 0.00 0.00 9 1013.3
20260507011604 64 151 1.0 12.0 0.00 0.00 0.00 9 1013.2
20260507011504 64 151 1.0 12.0 0.00 0.00 0.00 9 1013.2
20260507011404 64 151 1.0 12.0 0.00 0.00 0.00 9 1013.2
20260507011304 64 151 1.0 12.0 0.00 0.00 0.00 9 1013.2
20260507011204 64 151 1.0 12.0 0.00 0.00 0.00 9 1013.2
20260507011125 64 151 1.0 12.0 0.00 0.00 0.00 9 1013.2
20260507010904 64 151 1.0 12.0 0.00 0.00 0.00 9 1013.2
20260507010804 64 151 1.0 12.0 0.00 0.00 0.00 10 1013.2
20260507010704 64 152 1.0 12.0 0.00 0.00 0.00 10 1013.2
20260507010604 64 151 0.0 9.0 0.00 0.00 0.00 9 1013.2
20260507010525 64 151 1.0 9.0 0.00 0.00 0.00 9 1013.3
20260507010404 64 154 1.0 9.0 0.00 0.00 0.00 8 1013.2
20260507010304 64 154 1.0 9.0 0.00 0.00 0.00 7 1013.2
20260507010204 64 153 1.0 9.0 0.00 0.00 0.00 8 1013.1
20260507010104 64 153 2.0 9.0 0.00 0.00 0.00 9 1013.0
20260507010004 64 159 2.0 9.0 0.00 0.00 0.00 8 1013.0
20260507005904 64 159 3.0 11.0 0.00 0.00 0.00 9 1013.0
20260507005825 64 159 4.0 12.0 0.00 0.00 0.00 8 1013.1
20260507005725 64 160 4.0 12.0 0.00 0.00 0.00 8 1013.0
20260507005625 64 161 4.0 12.0 0.00 0.00 0.00 8 1013.0
20260507005504 63 164 5.0 12.0 0.00 0.00 0.00 8 1012.9
20260507005404 63 164 5.0 12.0 0.00 0.00 0.00 8 1012.9
20260507005305 63 164 5.0 12.0 0.00 0.00 0.00 7 1012.9
20260507005204 63 163 6.0 12.0 0.00 0.00 0.00 7 1012.8
20260507005104 63 163 6.0 12.0 0.00 0.00 0.00 9 1012.8
20260507005004 63 160 6.0 12.0 0.00 0.00 0.00 9 1012.7
20260507004904 63 160 5.0 12.0 0.00 0.00 0.00 9 1012.7
20260507004804 63 160 5.0 11.0 0.00 0.00 0.00 9 1012.7
20260507004704 63 160 5.0 11.0 0.00 0.00 0.00 9 1012.8
20260507004604 63 160 5.0 14.0 0.00 0.00 0.00 9 1012.8
20260507004504 63 162 5.0 14.0 0.00 0.00 0.00 9 1012.8
20260507004404 63 162 5.0 14.0 0.00 0.00 0.00 9 1012.9
20260507004304 63 163 5.0 14.0 0.00 0.00 0.00 9 1012.9
20260507004204 64 164 4.0 14.0 0.00 0.00 0.00 8 1013.0
20260507004104 63 165 4.0 14.0 0.00 0.00 0.00 8 1013.0
20260507004004 63 169 3.0 14.0 0.00 0.00 0.00 8 1013.0
20260507003904 63 170 3.0 14.0 0.00 0.00 0.00 8 1013.0
20260507003804 63 173 3.0 14.0 0.00 0.00 0.00 9 1013.0
20260507003704 63 172 3.0 14.0 0.00 0.00 0.00 10 1012.7
20260507003604 64 174 2.0 13.0 0.00 0.00 0.00 10 1012.7
20260507003504 64 167 2.0 11.0 0.00 0.00 0.00 9 1012.8
20260507003404 64 165 2.0 11.0 0.00 0.00 0.00 8 1012.8
20260507003304 64 162 3.0 13.0 0.00 0.00 0.00 7 1012.8
20260507003204 64 161 4.0 13.0 0.00 0.00 0.00 6 1012.9
20260507003104 64 161 5.0 13.0 0.00 0.00 0.00 7 1012.9
20260507003004 63 160 5.0 13.0 0.00 0.00 0.00 7 1013.0
20260507002925 63 160 6.0 13.0 0.00 0.00 0.00 7 1012.9
20260507002804 63 160 6.0 13.0 0.00 0.00 0.00 7 1012.9
20260507002704 63 160 5.0 13.0 0.00 0.00 0.00 8 1012.9
20260507002604 63 159 5.0 13.0 0.00 0.00 0.00 8 1012.9
20260507002504 63 159 4.0 13.0 0.00 0.00 0.00 8 1012.9
20260507002404 63 159 4.0 13.0 0.00 0.00 0.00 8 1012.9
20260507002306 63 160 3.0 11.0 0.00 0.00 0.00 8 1012.9
20260507002204 63 161 2.0 11.0 0.00 0.00 0.00 8 1012.8
20260507002125 63 161 2.0 10.0 0.00 0.00 0.00 8 1012.6
20260507002004 63 167 1.0 10.0 0.00 0.00 0.00 8 1012.6
20260507001925 63 169 0.0 10.0 0.00 0.00 0.00 7 1012.6
20260507001804 63 154 0.0 3.0 0.00 0.00 0.00 7 1012.6
20260507001704 63 154 0.0 3.0 0.00 0.00 0.00 6 1012.6
20260507001604 63 158 0.0 3.0 0.00 0.00 0.00 7 1012.7
20260507001504 63 171 0.0 3.0 0.00 0.00 0.00 7 1012.8
20260507001404 63 171 0.0 3.0 0.00 0.00 0.00 6 1012.8
20260507001304 63 176 0.0 3.0 0.00 0.00 0.00 6 1012.9
20260507001204 63 173 1.0 9.0 0.00 0.00 0.00 6 1012.9
20260507001104 63 179 1.0 11.0 0.00 0.00 0.00 6 1012.9
20260507001004 63 179 2.0 11.0 0.00 0.00 0.00 7 1012.8
20260507000904 63 175 2.0 11.0 0.00 0.00 0.00 7 1012.7
20260507000804 63 175 2.0 11.0 0.00 0.00 0.00 7 1012.7
20260507000704 63 175 2.0 11.0 0.00 0.00 0.00 7 1012.6
20260507000604 63 173 3.0 11.0 0.00 0.00 0.00 6 1012.7
20260507000504 63 170 3.0 11.0 0.00 0.00 0.00 7 1012.6
20260507000405 63 170 3.0 11.0 0.00 0.00 0.00 7 1012.6
20260507000306 63 169 4.0 11.0 0.00 0.00 0.00 6 1012.6
20260507000226 63 168 4.0 11.0 0.00 0.00 0.00 6 1012.5
20260507000104 63 165 4.0 11.0 0.00 0.00 0.00 5 1012.5
20260507000004 63 162 3.0 11.0 0.00 0.00 0.00 5 1012.4
20260506235904 63 160 4.0 11.0 0.00 0.00 0.00 4 1012.5
20260506235804 63 163 4.0 11.0 0.00 0.00 0.00 4 1012.6
20260506235704 63 163 4.0 11.0 0.00 0.00 0.00 4 1012.8
20260506235625 63 164 5.0 11.0 0.00 0.00 0.00 4 1012.8
20260506235504 63 166 5.0 11.0 0.00 0.00 0.00 4 1012.9
20260506235404 63 168 5.0 11.0 0.00 0.00 0.00 4 1012.9
20260506235325 63 167 6.0 11.0 0.00 0.00 0.00 4 1012.9
20260506235205 63 168 6.0 13.0 0.00 0.00 0.00 5 1012.9
20260506235104 63 169 6.0 13.0 0.00 0.00 0.00 5 1012.8
20260506235004 63 170 6.0 13.0 0.00 0.00 0.00 5 1012.7
20260506234904 63 171 6.0 13.0 0.00 0.00 0.00 6 1012.7
20260506234804 63 173 6.0 13.0 0.00 0.00 0.00 5 1012.6
20260506234704 63 175 7.0 13.0 0.00 0.00 0.00 6 1012.5
20260506234625 63 175 7.0 13.0 0.00 0.00 0.00 6 1012.5
20260506234525 63 174 6.0 13.0 0.00 0.00 0.00 6 1012.5
20260506234404 63 172 6.0 13.0 0.00 0.00 0.00 7 1012.5
20260506234304 63 171 6.0 13.0 0.00 0.00 0.00 7 1012.5
20260506234225 63 173 6.0 12.0 0.00 0.00 0.00 7 1012.5
20260506234125 63 173 6.0 12.0 0.00 0.00 0.00 7 1012.5
20260506234004 63 170 7.0 14.0 0.00 0.00 0.00 5 1012.6
20260506233904 63 169 7.0 14.0 0.00 0.00 0.00 5 1012.6
20260506233804 63 169 7.0 14.0 0.00 0.00 0.00 5 1012.6
20260506233704 63 168 7.0 14.0 0.00 0.00 0.00 5 1012.6
20260506233604 63 168 7.0 14.0 0.00 0.00 0.00 4 1012.6
20260506233525 63 169 8.0 14.0 0.00 0.00 0.00 4 1012.6
20260506233425 63 169 8.0 14.0 0.00 0.00 0.00 6 1012.5
20260506233304 63 172 7.0 14.0 0.00 0.00 0.00 6 1012.6
20260506233204 63 170 7.0 14.0 0.00 0.00 0.00 6 1012.6
20260506233104 63 170 7.0 14.0 0.00 0.00 0.00 7 1012.5
20260506233004 63 173 7.0 14.0 0.00 0.00 0.00 7 1012.5
20260506232904 63 175 7.0 13.0 0.00 0.00 0.00 7 1012.5
20260506232804 63 173 6.0 12.0 0.00 0.00 0.00 6 1012.5
20260506232704 63 171 6.0 12.0 0.00 0.00 0.00 5 1012.6
20260506232604 63 170 6.0 12.0 0.00 0.00 0.00 5 1012.7
20260506232504 63 170 6.0 12.0 0.00 0.00 0.00 4 1012.7
20260506232404 63 167 6.0 13.0 0.00 0.00 0.00 5 1012.7
20260506232325 63 165 6.0 13.0 0.00 0.00 0.00 5 1012.6
20260506232204 63 165 6.0 13.0 0.00 0.00 0.00 6 1012.6
20260506232104 63 165 6.0 13.0 0.00 0.00 0.00 6 1012.4
20260506232004 63 164 6.0 13.0 0.00 0.00 0.00 6 1012.4
20260506231904 63 161 6.0 13.0 0.00 0.00 0.00 7 1012.4
20260506231804 63 160 6.0 13.0 0.00 0.00 0.00 7 1012.4
20260506231704 63 161 6.0 13.0 0.00 0.00 0.00 5 1012.5
20260506231604 63 162 6.0 13.0 0.00 0.00 0.00 7 1012.5
20260506231504 63 162 6.0 13.0 0.00 0.00 0.00 8 1012.4
20260506231404 63 166 6.0 12.0 0.00 0.00 0.00 8 1012.4
20260506231304 63 166 6.0 12.0 0.00 0.00 0.00 8 1012.4
20260506231204 63 166 5.0 11.0 0.00 0.00 0.00 8 1012.5
20260506231104 63 166 4.0 11.0 0.00 0.00 0.00 8 1012.5
20260506231004 63 164 4.0 11.0 0.00 0.00 0.00 7 1012.6
20260506230904 63 167 4.0 11.0 0.00 0.00 0.00 6 1012.7
20260506230804 63 167 5.0 11.0 0.00 0.00 0.00 7 1012.6
20260506230725 63 168 5.0 11.0 0.00 0.00 0.00 8 1012.7
20260506230604 63 166 4.0 13.0 0.00 0.00 0.00 9 1012.6
20260506230504 63 163 4.0 13.0 0.00 0.00 0.00 9 1012.6
20260506230405 63 161 5.0 13.0 0.00 0.00 0.00 7 1012.5
20260506230304 63 161 5.0 13.0 0.00 0.00 0.00 6 1012.4
20260506230204 63 159 6.0 13.0 0.00 0.00 0.00 7 1012.4
20260506230104 63 158 7.0 13.0 0.00 0.00 0.00 9 1012.4
20260506230004 63 159 7.0 13.0 0.00 0.00 0.00 9 1012.4
20260506225904 63 158 7.0 13.0 0.00 0.00 0.00 9 1012.4
20260506225804 63 158 6.0 13.0 0.00 0.00 0.00 9 1012.5
20260506225704 63 156 6.0 13.0 0.00 0.00 0.00 8 1012.5
20260506225604 63 156 6.0 15.0 0.00 0.00 0.00 8 1012.4
20260506225504 63 155 6.0 15.0 0.00 0.00 0.00 10 1012.5
20260506225404 63 153 6.0 15.0 0.00 0.00 0.00 10 1012.4
20260506225305 63 153 6.0 15.0 0.00 0.00 0.00 11 1012.4
20260506225204 63 155 6.0 15.0 0.00 0.00 0.00 10 1012.4
20260506225104 63 156 6.0 15.0 0.00 0.00 0.00 9 1012.4
20260506225004 63 156 7.0 15.0 0.00 0.00 0.00 8 1012.4
20260506224904 63 155 7.0 15.0 0.00 0.00 0.00 8 1012.5
20260506224804 63 155 7.0 15.0 0.00 0.00 0.00 8 1012.5
20260506224704 63 156 7.0 15.0 0.00 0.00 0.00 9 1012.5
20260506224604 63 157 8.0 15.0 0.00 0.00 0.00 10 1012.5
20260506224504 63 159 8.0 15.0 0.00 0.00 0.00 11 1012.5
20260506224404 63 160 8.0 15.0 0.00 0.00 0.00 10 1012.4
20260506224304 63 160 8.0 15.0 0.00 0.00 0.00 12 1012.4
20260506224204 63 158 8.0 15.0 0.00 0.00 0.00 12 1012.4
20260506224104 63 159 8.0 15.0 0.00 0.00 0.00 12 1012.3
20260506224004 63 158 7.0 15.0 0.00 0.00 0.00 11 1012.3
20260506223904 63 160 7.0 15.0 0.00 0.00 0.00 12 1012.3
20260506223804 63 162 7.0 15.0 0.00 0.00 0.00 12 1012.3
20260506223704 63 162 7.0 15.0 0.00 0.00 0.00 13 1012.2
20260506223625 63 162 7.0 15.0 0.00 0.00 0.00 13 1012.2
20260506223525 63 161 7.0 17.0 0.00 0.00 0.00 14 1012.2
20260506223404 63 160 7.0 17.0 0.00 0.00 0.00 13 1012.2
20260506223304 63 161 7.0 17.0 0.00 0.00 0.00 14 1012.2
20260506223204 63 161 7.0 17.0 0.00 0.00 0.00 13 1012.2
20260506223104 63 163 7.0 17.0 0.00 0.00 0.00 14 1012.3
20260506223004 63 163 7.0 17.0 0.00 0.00 0.00 15 1012.2
20260506222904 63 163 7.0 17.0 0.00 0.00 0.00 13 1012.3
20260506222804 63 161 8.0 17.0 0.00 0.00 0.00 14 1012.3
20260506222704 63 161 7.0 17.0 0.00 0.00 0.00 16 1012.3
20260506222604 63 162 7.0 17.0 0.00 0.00 0.00 16 1012.3
20260506222504 63 163 7.0 15.0 0.00 0.00 0.00 16 1012.4
20260506222404 63 162 8.0 15.0 0.00 0.00 0.00 17 1012.4
20260506222306 63 166 8.0 15.0 0.00 0.00 0.00 17 1012.4
20260506222204 63 169 8.0 15.0 0.00 0.00 0.00 17 1012.4
20260506222104 64 169 8.0 17.0 0.00 0.00 0.00 18 1012.4
20260506222004 64 169 8.0 17.0 0.00 0.00 0.00 17 1012.4
20260506221904 64 169 8.0 17.0 0.00 0.00 0.00 16 1012.4
20260506221804 64 169 9.0 17.0 0.00 0.00 0.00 15 1012.4
20260506221704 64 170 9.0 17.0 0.00 0.00 0.00 16 1012.4
20260506221604 64 171 9.0 17.0 0.00 0.00 0.00 16 1012.4
20260506221504 64 170 9.0 17.0 0.00 0.00 0.00 16 1012.4
20260506221404 64 170 8.0 17.0 0.00 0.00 0.00 20 1012.4
20260506221304 64 168 7.0 17.0 0.00 0.00 0.00 20 1012.4
20260506221204 64 166 7.0 17.0 0.00 0.00 0.00 20 1012.4
20260506221125 64 164 7.0 16.0 0.00 0.00 0.00 19 1012.4
20260506221004 64 166 7.0 15.0 0.00 0.00 0.00 21 1012.3
20260506220904 64 168 7.0 17.0 0.00 0.00 0.00 20 1012.4
20260506220825 64 169 6.0 17.0 0.00 0.00 0.00 20 1012.3
20260506220704 64 169 5.0 17.0 0.00 0.00 0.00 17 1012.3
20260506220604 64 169 6.0 17.0 0.00 0.00 0.00 17 1012.2
20260506220504 64 171 6.0 17.0 0.00 0.00 0.00 19 1012.2
20260506220404 64 170 6.0 17.0 0.00 0.00 0.00 18 1012.2
20260506220304 64 169 7.0 17.0 0.00 0.00 0.00 19 1012.2
20260506220204 64 168 7.0 17.0 0.00 0.00 0.00 19 1012.2
20260506220104 64 167 7.0 17.0 0.00 0.00 0.00 21 1012.2
20260506220004 64 169 7.0 17.0 0.00 0.00 0.00 22 1012.2
20260506215904 64 167 7.0 17.0 0.00 0.00 0.00 22 1012.2
20260506215825 64 167 8.0 17.0 0.00 0.00 0.00 22 1012.2
20260506215704 64 168 8.0 17.0 0.00 0.00 0.00 19 1012.2
20260506215625 64 169 9.0 17.0 0.00 0.00 0.00 19 1012.2
20260506215504 64 168 9.0 17.0 0.00 0.00 0.00 19 1012.3
20260506215404 64 168 9.0 17.0 0.00 0.00 0.00 20 1012.2
20260506215306 64 169 9.0 17.0 0.00 0.00 0.00 21 1012.2
20260506215225 64 170 8.0 17.0 0.00 0.00 0.00 21 1012.2
20260506215104 64 170 8.0 17.0 0.00 0.00 0.00 19 1012.2
20260506215004 64 168 9.0 17.0 0.00 0.00 0.00 21 1012.2
20260506214904 64 167 9.0 18.0 0.00 0.00 0.00 21 1012.2
20260506214804 64 167 9.0 18.0 0.00 0.00 0.00 21 1012.2
20260506214704 64 168 8.0 18.0 0.00 0.00 0.00 21 1012.1
20260506214604 64 169 8.0 18.0 0.00 0.00 0.00 21 1012.2
20260506214503 64 171 8.0 18.0 0.00 0.00 0.00 19 1012.1
20260506214404 64 174 8.0 18.0 0.00 0.00 0.00 20 1012.1
20260506214304 64 173 9.0 18.0 0.00 0.00 0.00 21 1012.1
20260506214204 64 171 9.0 18.0 0.00 0.00 0.00 22 1012.0
20260506214104 64 172 10.0 18.0 0.00 0.00 0.00 21 1012.0
20260506214004 64 172 10.0 18.0 0.00 0.00 0.00 23 1012.0
20260506213904 64 172 9.0 16.0 0.00 0.00 0.00 23 1012.0
20260506213804 64 173 9.0 16.0 0.00 0.00 0.00 22 1012.0
20260506213704 64 171 9.0 15.0 0.00 0.00 0.00 23 1012.1
20260506213604 64 171 9.0 15.0 0.00 0.00 0.00 23 1012.2
20260506213504 64 171 9.0 15.0 0.00 0.00 0.00 24 1012.2
20260506213404 64 168 9.0 15.0 0.00 0.00 0.00 24 1012.2
20260506213304 64 168 9.0 15.0 0.00 0.00 0.00 25 1012.2
20260506213204 64 170 9.0 15.0 0.00 0.00 0.00 25 1012.2
20260506213104 64 171 8.0 15.0 0.00 0.00 0.00 25 1012.3
20260506213004 64 172 7.0 15.0 0.00 0.00 0.00 25 1012.3
20260506212904 64 172 6.0 15.0 0.00 0.00 0.00 24 1012.3
20260506212804 64 171 6.0 15.0 0.00 0.00 0.00 25 1012.4
20260506212704 65 173 5.0 15.0 0.00 0.00 0.00 26 1012.2
20260506212604 65 172 4.0 14.0 0.00 0.00 0.00 26 1012.3
20260506212504 65 172 4.0 14.0 0.00 0.00 0.00 25 1012.2
20260506212404 65 174 3.0 13.0 0.00 0.00 0.00 24 1012.3
20260506212306 65 178 2.0 13.0 0.00 0.00 0.00 24 1012.3
20260506212225 65 181 1.0 13.0 0.00 0.00 0.00 24 1012.3
20260506212104 65 173 1.0 11.0 0.00 0.00 0.00 25 1012.3
20260506212025 65 174 1.0 11.0 0.00 0.00 0.00 25 1012.4
20260506211904 65 165 2.0 11.0 0.00 0.00 0.00 28 1012.4
20260506211804 65 157 2.0 16.0 0.00 0.00 0.00 26 1012.4
20260506211704 65 156 3.0 16.0 0.00 0.00 0.00 27 1012.4
20260506211625 65 155 3.0 16.0 0.00 0.00 0.00 27 1012.3
20260506211504 65 155 4.0 16.0 0.00 0.00 0.00 26 1012.4
20260506211404 65 156 5.0 16.0 0.00 0.00 0.00 26 1012.4
20260506211304 65 156 6.0 16.0 0.00 0.00 0.00 27 1012.3
20260506211204 65 157 6.0 16.0 0.00 0.00 0.00 26 1012.3
20260506211104 65 157 6.0 16.0 0.00 0.00 0.00 27 1012.3
20260506211025 65 157 6.0 16.0 0.00 0.00 0.00 27 1012.5
20260506210904 66 159 5.0 16.0 0.00 0.00 0.00 28 1012.5
20260506210825 66 160 4.0 14.0 0.00 0.00 0.00 27 1012.5
20260506210704 66 163 4.0 14.0 0.00 0.00 0.00 27 1012.5
20260506210604 66 164 3.0 14.0 0.00 0.00 0.00 27 1012.4
20260506210504 66 161 3.0 14.0 0.00 0.00 0.00 25 1012.4
20260506210404 66 159 3.0 15.0 0.00 0.00 0.00 25 1012.3
20260506210304 66 159 2.0 15.0 0.00 0.00 0.00 25 1012.3
20260506210204 66 157 2.0 15.0 0.00 0.00 0.00 25 1012.4
20260506210104 66 157 2.0 15.0 0.00 0.00 0.00 24 1012.4
20260506210004 66 158 2.0 15.0 0.00 0.00 0.00 23 1012.4
20260506205904 66 159 2.0 15.0 0.00 0.00 0.00 25 1012.4
20260506205804 66 156 2.0 15.0 0.00 0.00 0.00 26 1012.5
20260506205704 66 155 2.0 15.0 0.00 0.00 0.00 26 1012.5
20260506205604 66 153 2.0 15.0 0.00 0.00 0.00 26 1012.5
20260506205504 66 156 2.0 15.0 0.00 0.00 0.00 26 1012.6
20260506205404 66 160 1.0 9.0 0.00 0.00 0.00 24 1012.5
20260506205306 66 161 2.0 9.0 0.00 0.00 0.00 24 1012.6
20260506205204 66 161 2.0 9.0 0.00 0.00 0.00 24 1012.6
20260506205125 66 161 2.0 9.0 0.00 0.00 0.00 24 1012.6
20260506205004 66 166 2.0 9.0 0.00 0.00 0.00 25 1012.7
20260506204904 66 166 2.0 15.0 0.00 0.00 0.00 25 1012.7
20260506204804 66 165 2.0 15.0 0.00 0.00 0.00 26 1012.7
20260506204704 66 165 3.0 15.0 0.00 0.00 0.00 26 1012.6
20260506204604 66 165 3.0 15.0 0.00 0.00 0.00 27 1012.6
20260506204504 66 167 4.0 15.0 0.00 0.00 0.00 28 1012.6
20260506204404 66 168 5.0 15.0 0.00 0.00 0.00 27 1012.7
20260506204304 66 168 6.0 15.0 0.00 0.00 0.00 26 1012.6
20260506204204 66 168 6.0 15.0 0.00 0.00 0.00 26 1012.5
20260506204104 66 167 7.0 15.0 0.00 0.00 0.00 27 1012.5
20260506204004 66 165 7.0 15.0 0.00 0.00 0.00 27 1012.5
20260506203904 66 164 7.0 17.0 0.00 0.00 0.00 27 1012.6
20260506203804 67 163 8.0 17.0 0.00 0.00 0.00 27 1012.5
20260506203725 67 163 8.0 17.0 0.00 0.00 0.00 27 1012.5
20260506203604 67 163 8.0 17.0 0.00 0.00 0.00 28 1012.5
20260506203504 67 163 7.0 17.0 0.00 0.00 0.00 28 1012.5
20260506203404 67 161 7.0 17.0 0.00 0.00 0.00 27 1012.5
20260506203304 67 159 6.0 17.0 0.00 0.00 0.00 25 1012.5
20260506203204 68 160 6.0 17.0 0.00 0.00 0.00 25 1012.5
20260506203104 68 159 6.0 17.0 0.00 0.00 0.00 23 1012.5
20260506203004 68 159 7.0 17.0 0.00 0.00 0.00 23 1012.4
20260506202904 68 159 7.0 15.0 0.00 0.00 0.00 23 1012.4
20260506202804 68 160 8.0 15.0 0.00 0.00 0.00 22 1012.4
20260506202704 68 162 8.0 15.0 0.00 0.00 0.00 23 1012.4
20260506202604 68 161 7.0 15.0 0.00 0.00 0.00 23 1012.4
20260506202504 68 160 8.0 15.0 0.00 0.00 0.00 21 1012.3
20260506202404 68 162 8.0 15.0 0.00 0.00 0.00 22 1012.4
20260506202306 68 162 8.0 15.0 0.00 0.00 0.00 23 1012.4
20260506202204 68 161 8.0 15.0 0.00 0.00 0.00 21 1012.4
20260506202104 68 162 8.0 14.0 0.00 0.00 0.00 22 1012.3
20260506202025 68 163 9.0 14.0 0.00 0.00 0.00 22 1012.3
20260506201904 68 165 8.0 16.0 0.00 0.00 0.00 23 1012.3
20260506201804 68 166 8.0 16.0 0.00 0.00 0.00 23 1012.3
20260506201704 68 165 7.0 16.0 0.00 0.00 0.00 21 1012.2
20260506201604 68 165 7.0 16.0 0.00 0.00 0.00 22 1012.2
20260506201503 68 167 6.0 16.0 0.00 0.00 0.00 21 1012.2
20260506201404 68 165 6.0 16.0 0.00 0.00 0.00 22 1012.1
20260506201304 68 168 6.0 16.0 0.00 0.00 0.00 22 1012.1
20260506201225 68 169 5.0 16.0 0.00 0.00 0.00 22 1012.2
20260506201125 68 167 5.0 16.0 0.00 0.00 0.00 22 1012.1
20260506201006 68 164 5.0 15.0 0.00 0.00 0.00 20 1012.2
20260506200905 68 164 5.0 14.0 0.00 0.00 0.00 19 1012.2
20260506200804 68 163 6.0 15.0 0.00 0.00 0.00 20 1012.2
20260506200704 68 164 6.0 17.0 0.00 0.00 0.00 20 1012.2
20260506200604 68 165 7.0 17.0 0.00 0.00 0.00 17 1012.2
20260506200504 69 165 7.0 17.0 0.00 0.00 0.00 17 1012.1
20260506200404 69 166 6.0 17.0 0.00 0.00 0.00 17 1012.1
20260506200304 68 163 6.0 17.0 0.00 0.00 0.00 17 1012.1
20260506200204 68 164 6.0 17.0 0.00 0.00 0.00 19 1012.1
20260506200104 68 166 5.0 17.0 0.00 0.00 0.00 20 1012.0
20260506200004 69 167 4.0 17.0 0.00 0.00 0.00 22 1012.0
20260506195904 69 166 3.0 17.0 0.00 0.00 0.00 22 1012.0
20260506195804 69 169 2.0 17.0 0.00 0.00 0.00 23 1012.0
20260506195704 69 170 2.0 15.0 0.00 0.00 0.00 23 1012.0
20260506195604 69 167 1.0 15.0 0.00 0.00 0.00 23 1012.0
20260506195504 69 168 1.0 15.0 0.00 0.00 0.00 23 1012.0
20260506195404 69 175 2.0 15.0 0.00 0.00 0.00 24 1012.0
20260506195306 69 175 2.0 15.0 0.00 0.00 0.00 23 1012.0
20260506195204 69 172 3.0 16.0 0.00 0.00 0.00 24 1012.0
20260506195104 69 169 3.0 17.0 0.00 0.00 0.00 24 1012.0
20260506195003 70 168 3.0 17.0 0.00 0.00 0.00 24 1012.0
20260506194904 70 170 3.0 17.0 0.00 0.00 0.00 24 1012.0
20260506194804 70 169 4.0 17.0 0.00 0.00 0.00 24 1012.1
20260506194704 70 172 4.0 17.0 0.00 0.00 0.00 25 1012.0
20260506194604 70 176 5.0 17.0 0.00 0.00 0.00 25 1012.0
20260506194504 70 175 5.0 18.0 0.00 0.00 0.00 25 1012.0
20260506194404 70 173 5.0 18.0 0.00 0.00 0.00 26 1011.9
20260506194325 70 175 6.0 18.0 0.00 0.00 0.00 26 1012.0
20260506194204 70 177 5.0 18.0 0.00 0.00 0.00 28 1011.9
20260506194104 70 177 6.0 18.0 0.00 0.00 0.00 28 1011.9
20260506194025 70 176 6.0 18.0 0.00 0.00 0.00 28 1012.0
20260506193904 71 174 7.0 18.0 0.00 0.00 0.00 28 1012.0
20260506193825 71 175 7.0 18.0 0.00 0.00 0.00 27 1011.9
20260506193725 71 175 7.0 18.0 0.00 0.00 0.00 28 1011.9
20260506193625 71 176 7.0 18.0 0.00 0.00 0.00 27 1011.9
20260506193504 71 175 7.0 16.0 0.00 0.00 0.00 26 1011.8
20260506193425 71 175 7.0 16.0 0.00 0.00 0.00 27 1011.8
20260506193304 71 172 7.0 16.0 0.00 0.00 0.00 26 1011.8
20260506193204 71 169 7.0 16.0 0.00 0.00 0.00 28 1011.9
20260506193104 71 169 8.0 16.0 0.00 0.00 0.00 28 1011.9
20260506193025 71 168 8.0 16.0 0.00 0.00 0.00 27 1011.9
20260506192904 71 167 9.0 16.0 0.00 0.00 0.00 27 1011.8
20260506192825 72 166 9.0 16.0 0.00 0.00 0.00 27 1011.8
20260506192704 71 164 8.0 16.0 0.00 0.00 0.00 27 1011.9
20260506192604 71 162 8.0 16.0 0.00 0.00 0.00 26 1011.9
20260506192504 71 160 8.0 16.0 0.00 0.00 0.00 28 1011.9
20260506192404 71 158 7.0 16.0 0.00 0.00 0.00 28 1011.9
20260506192305 71 158 6.0 16.0 0.00 0.00 0.00 27 1011.9
20260506192204 72 159 6.0 16.0 0.00 0.00 0.00 28 1011.9
20260506192125 72 158 4.0 16.0 0.00 0.00 0.00 29 1011.9
20260506192004 72 159 4.0 16.0 0.00 0.00 0.00 29 1011.9
20260506191925 72 161 3.0 15.0 0.00 0.00 0.00 28 1011.8
20260506191804 72 159 2.0 14.0 0.00 0.00 0.00 26 1011.9
20260506191725 72 159 3.0 11.0 0.00 0.00 0.00 26 1011.9
20260506191604 72 158 3.0 11.0 0.00 0.00 0.00 27 1011.9
20260506191504 72 159 2.0 11.0 0.00 0.00 0.00 27 1012.0
20260506191404 72 164 2.0 11.0 0.00 0.00 0.00 27 1012.1
20260506191304 73 163 2.0 11.0 0.00 0.00 0.00 26 1012.1
20260506191204 73 161 2.0 11.0 0.00 0.00 0.00 27 1012.1
20260506191104 73 161 2.0 11.0 0.00 0.00 0.00 28 1012.1
20260506191025 73 161 1.0 11.0 0.00 0.00 0.00 27 1012.1
20260506190925 73 161 1.0 11.0 0.00 0.00 0.00 28 1012.1
20260506190804 74 157 1.0 10.0 0.00 0.00 0.00 28 1012.0
20260506190704 74 155 1.0 10.0 0.00 0.00 0.00 27 1012.0
20260506190604 74 158 1.0 8.0 0.00 0.00 0.00 25 1012.0
20260506190525 74 158 1.0 8.0 0.00 0.00 0.00 25 1012.0
20260506190404 74 158 1.0 8.0 0.00 0.00 0.00 25 1011.9
20260506190304 74 158 0.0 8.0 0.00 0.00 0.00 24 1011.9
20260506190225 74 166 0.0 7.0 0.00 0.00 0.00 24 1011.9
20260506190104 74 163 0.0 7.0 0.00 0.00 0.00 23 1011.9
20260506190004 74 164 1.0 7.0 0.00 0.00 0.00 24 1011.9
20260506185904 74 167 1.0 7.0 0.00 0.00 0.00 24 1011.9
20260506185804 74 171 1.0 7.0 0.00 0.00 0.00 24 1011.9
20260506185704 74 171 1.0 7.0 0.00 0.00 0.00 23 1011.9
20260506185604 74 173 0.0 5.0 0.00 0.00 0.00 25 1011.9
20260506185504 74 174 0.0 5.0 0.00 0.00 0.00 22 1011.9
20260506185403 74 176 0.0 5.0 0.00 0.00 0.00 23 1011.9
20260506185306 74 175 0.0 5.0 0.00 0.00 0.00 24 1011.9
20260506185204 74 175 0.0 5.0 0.00 0.00 0.00 23 1011.8
20260506185104 74 181 0.0 4.0 0.00 0.00 0.00 24 1011.8
20260506185003 74 179 0.0 4.0 0.00 0.00 0.00 25 1011.8
20260506184904 74 179 0.0 4.0 0.00 0.00 0.00 25 1011.7
20260506184804 74 173 0.0 4.0 0.00 0.00 0.00 24 1011.7
20260506184704 74 180 0.0 4.0 0.00 0.00 0.00 22 1011.7
20260506184625 74 177 0.0 3.0 0.00 0.00 0.00 21 1011.7
20260506184504 74 177 0.0 3.0 0.00 0.00 0.00 21 1011.6
20260506184404 74 177 0.0 3.0 0.00 0.00 0.00 20 1011.7
20260506184304 74 172 0.0 3.0 0.00 0.00 0.00 20 1011.7
20260506184204 74 164 0.0 6.0 0.00 0.00 0.00 18 1011.7
20260506184103 74 164 0.0 6.0 0.00 0.00 0.00 19 1011.7
20260506184004 74 164 0.0 6.0 0.00 0.00 0.00 18 1011.7
20260506183925 74 164 0.0 6.0 0.00 0.00 0.00 17 1011.7
20260506183804 74 160 0.0 6.0 0.00 0.00 0.00 18 1011.7
20260506183704 74 155 0.0 6.0 0.00 0.00 0.00 16 1011.7
20260506183604 73 154 0.0 6.0 0.00 0.00 0.00 16 1011.7
20260506183504 73 154 0.0 6.0 0.00 0.00 0.00 15 1011.7
20260506183404 73 154 0.0 6.0 0.00 0.00 0.00 17 1011.7
20260506183304 73 155 0.0 6.0 0.00 0.00 0.00 16 1011.8
20260506183204 73 143 0.0 1.0 0.00 0.00 0.00 12 1011.8
20260506183104 73 143 0.0 1.0 0.00 0.00 0.00 13 1011.9
20260506183004 73 143 0.0 1.0 0.00 0.00 0.00 9 1011.8
20260506182925 72 143 0.0 1.0 0.00 0.00 0.00 12 1011.8
20260506182804 72 143 0.0 1.0 0.00 0.00 0.00 15 1011.9
20260506182704 72 143 0.0 1.0 0.00 0.00 0.00 15 1011.9
20260506182604 72 143 0.0 1.0 0.00 0.00 0.00 12 1011.9
20260506182504 72 143 0.0 1.0 0.00 0.00 0.00 13 1011.9
20260506182404 72 145 0.0 1.0 0.00 0.00 0.00 13 1011.8
20260506182306 72 145 0.0 1.0 0.00 0.00 0.00 14 1011.8
20260506182204 72 146 0.0 1.0 0.00 0.00 0.00 14 1011.9
20260506182104 72 146 0.0 1.0 0.00 0.00 0.00 12 1011.9
20260506182004 72 169 0.0 1.0 0.00 0.00 0.00 15 1011.8
20260506181904 72 169 0.0 1.0 0.00 0.00 0.00 14 1011.8
20260506181804 72 169 0.0 1.0 0.00 0.00 0.00 12 1011.8
20260506181704 72 169 0.0 1.0 0.00 0.00 0.00 15 1011.8
20260506181604 71 169 0.0 1.0 0.00 0.00 0.00 14 1011.8
20260506181525 71 169 0.0 1.0 0.00 0.00 0.00 15 1011.8
20260506181404 71 198 0.0 3.0 0.00 0.00 0.00 16 1011.8
20260506181304 71 198 0.0 3.0 0.00 0.00 0.00 16 1011.7
20260506181204 71 198 0.0 3.0 0.00 0.00 0.00 16 1011.7
20260506181104 71 198 0.0 3.0 0.00 0.00 0.00 18 1011.7
20260506181004 72 203 0.0 3.0 0.00 0.00 0.00 16 1011.7
20260506180925 72 203 0.0 3.0 0.00 0.00 0.00 12 1011.7
20260506180804 71 203 0.0 3.0 0.00 0.00 0.00 13 1011.7
20260506180704 71 203 0.0 3.0 0.00 0.00 0.00 13 1011.6
20260506180604 71 220 0.0 8.0 0.00 0.00 0.00 12 1011.6
20260506180504 71 222 1.0 8.0 0.00 0.00 0.00 9 1011.6
20260506180404 71 215 2.0 8.0 0.00 0.00 0.00 9 1011.6
20260506180304 71 211 2.0 9.0 0.00 0.00 0.00 7 1011.6
20260506180204 70 207 2.0 9.0 0.00 0.00 0.00 11 1011.6
20260506180104 70 209 3.0 9.0 0.00 0.00 0.00 13 1011.6
20260506180005 71 206 3.0 9.0 0.00 0.00 0.00 12 1011.7
20260506175904 71 206 4.0 9.0 0.00 0.00 0.00 11 1011.6
20260506175804 71 208 4.0 9.0 0.00 0.00 0.00 8 1011.6
20260506175725 70 209 4.0 9.0 0.00 0.00 0.00 12 1011.5
20260506175625 71 209 4.0 9.0 0.00 0.00 0.00 12 1011.5
20260506175504 70 210 4.0 9.0 0.00 0.00 0.00 11 1011.5
20260506175425 70 214 4.0 9.0 0.00 0.00 0.00 11 1011.5
20260506175306 70 218 4.0 8.0 0.00 0.00 0.00 10 1011.4
20260506175204 70 220 3.0 8.0 0.00 0.00 0.00 11 1011.5
20260506175104 70 220 3.0 8.0 0.00 0.00 0.00 6 1011.4
20260506175024 70 217 3.0 11.0 0.00 0.00 0.00 6 1011.5
20260506174904 70 219 3.0 11.0 0.00 0.00 0.00 7 1011.4
20260506174804 70 218 2.0 11.0 0.00 0.00 0.00 7 1011.5
20260506174704 70 217 2.0 11.0 0.00 0.00 0.00 7 1011.6
20260506174625 70 220 2.0 11.0 0.00 0.00 0.00 7 1011.6
20260506174525 70 217 1.0 11.0 0.00 0.00 0.00 6 1011.6
20260506174404 70 190 1.0 11.0 0.00 0.00 0.00 5 1011.6
20260506174304 69 188 1.0 11.0 0.00 0.00 0.00 7 1011.6
20260506174204 69 188 1.0 11.0 0.00 0.00 0.00 3 1011.6
20260506174104 69 186 0.0 11.0 0.00 0.00 0.00 5 1011.6
20260506174004 69 194 0.0 2.0 0.00 0.00 0.00 4 1011.6
20260506173904 69 189 0.0 2.0 0.00 0.00 0.00 1 1011.6
20260506173804 69 178 0.0 1.0 0.00 0.00 0.00 1 1011.7
20260506173704 69 204 0.0 2.0 0.00 0.00 0.00 1 1011.7
20260506173604 69 206 0.0 2.0 0.00 0.00 0.00 1 1011.8
20260506173525 68 207 0.0 2.0 0.00 0.00 0.00 1 1011.7
20260506173404 68 207 0.0 2.0 0.00 0.00 0.00 1 1011.7
20260506173304 68 205 0.0 2.0 0.00 0.00 0.00 1 1011.7
20260506173204 68 212 0.0 11.0 0.00 0.00 0.00 1 1011.7
20260506173104 68 175 1.0 11.0 0.00 0.00 0.00 1 1011.7
20260506173004 68 167 1.0 11.0 0.00 0.00 0.00 1 1011.7
20260506172904 68 169 1.0 11.0 0.00 0.00 0.00 1 1011.8
20260506172803 68 169 1.0 11.0 0.00 0.00 0.00 1 1011.8
20260506172704 68 167 1.0 11.0 0.00 0.00 0.00 1 1011.8
20260506172604 68 171 2.0 11.0 0.00 0.00 0.00 1 1011.8
20260506172504 68 186 2.0 11.0 0.00 0.00 0.00 1 1011.8
20260506172425 68 191 3.0 11.0 0.00 0.00 0.00 1 1011.9
20260506172306 68 199 4.0 11.0 0.00 0.00 0.00 1 1011.8
20260506172204 68 202 4.0 11.0 0.00 0.00 0.00 1 1011.8
20260506172104 68 208 4.0 11.0 0.00 0.00 0.00 1 1011.8
20260506172004 68 215 3.0 11.0 0.00 0.00 0.00 1 1011.7
20260506171904 67 215 4.0 11.0 0.00 0.00 0.00 1 1011.8
20260506171804 67 209 5.0 11.0 0.00 0.00 0.00 1 1011.8
20260506171725 67 206 5.0 11.0 0.00 0.00 0.00 1 1011.8
20260506171604 67 209 6.0 11.0 0.00 0.00 0.00 1 1011.9
20260506171504 67 214 6.0 11.0 0.00 0.00 0.00 1 1011.9
20260506171404 66 218 5.0 11.0 0.00 0.00 0.00 1 1011.9
20260506171325 66 219 5.0 11.0 0.00 0.00 0.00 1 1011.8
20260506171204 66 219 5.0 13.0 0.00 0.00 0.00 1 1011.8
20260506171104 66 217 6.0 13.0 0.00 0.00 0.00 1 1011.7
20260506171004 66 220 6.0 13.0 0.00 0.00 0.00 1 1011.8
20260506170904 66 223 6.0 13.0 0.00 0.00 0.00 1 1011.8
20260506170803 66 226 6.0 13.0 0.00 0.00 0.00 1 1011.8
20260506170704 66 224 6.0 13.0 0.00 0.00 0.00 1 1011.8
20260506170625 66 221 7.0 13.0 0.00 0.00 0.00 1 1011.9
20260506170525 66 215 7.0 13.0 0.00 0.00 0.00 1 1011.9
20260506170425 66 205 7.0 13.0 0.00 0.00 0.00 1 1011.9
20260506170303 66 200 7.0 13.0 0.00 0.00 0.00 1 1011.9
20260506170204 66 199 7.0 15.0 0.00 0.00 0.00 1 1012.0
20260506170104 66 197 7.0 15.0 0.00 0.00 0.00 1 1012.1
20260506170004 65 195 8.0 15.0 0.00 0.00 0.00 1 1012.2
20260506165904 65 195 8.0 15.0 0.00 0.00 0.00 1 1012.3
20260506165804 65 196 8.0 15.0 0.00 0.00 0.00 1 1012.3
20260506165704 65 199 8.0 15.0 0.00 0.00 0.00 1 1012.2
20260506165604 65 202 8.0 15.0 0.00 0.00 0.00 1 1012.2
20260506165504 65 203 7.0 15.0 0.00 0.00 0.00 1 1012.2
20260506165404 65 205 7.0 15.0 0.00 0.00 0.00 1 1012.2
20260506165305 65 209 7.0 15.0 0.00 0.00 0.00 1 1012.2
20260506165204 65 210 7.0 14.0 0.00 0.00 0.00 1 1012.2
20260506165125 65 210 7.0 14.0 0.00 0.00 0.00 1 1012.4
20260506165003 65 211 6.0 13.0 0.00 0.00 0.00 1 1012.5
20260506164903 64 209 6.0 13.0 0.00 0.00 0.00 1 1012.5
20260506164825 64 211 6.0 13.0 0.00 0.00 0.00 1 1012.5
20260506164704 64 212 6.0 13.0 0.00 0.00 0.00 1 1012.5
20260506164625 64 212 5.0 13.0 0.00 0.00 0.00 1 1012.5
20260506164504 64 214 5.0 13.0 0.00 0.00 0.00 1 1012.5
20260506164404 64 216 4.0 13.0 0.00 0.00 0.00 1 1012.5
20260506164304 64 211 4.0 13.0 0.00 0.00 0.00 1 1012.5
20260506164204 64 208 5.0 13.0 0.00 0.00 0.00 1 1012.6
20260506164104 63 207 5.0 13.0 0.00 0.00 0.00 1 1012.7
20260506164004 63 202 5.0 13.0 0.00 0.00 0.00 1 1012.8
20260506163903 63 199 5.0 13.0 0.00 0.00 0.00 1 1012.8
20260506163804 63 192 4.0 13.0 0.00 0.00 0.00 1 1013.0
20260506163703 63 185 5.0 12.0 0.00 0.00 0.00 1 1013.0
20260506163604 63 183 5.0 12.0 0.00 0.00 0.00 1 1013.0
20260506163504 63 184 6.0 12.0 0.00 0.00 0.00 1 1013.0
20260506163404 62 187 6.0 14.0 0.00 0.00 0.00 1 1013.1
20260506163304 62 187 7.0 14.0 0.00 0.00 0.00 1 1013.1
20260506163204 62 187 6.0 14.0 0.00 0.00 0.00 1 1013.1
20260506163104 62 187 6.0 14.0 0.00 0.00 0.00 1 1013.1
20260506163004 62 185 6.0 14.0 0.00 0.00 0.00 1 1013.1
20260506162904 62 186 7.0 14.0 0.00 0.00 0.00 1 1013.2
20260506162804 62 187 7.0 14.0 0.00 0.00 0.00 1 1013.2
20260506162703 62 185 7.0 14.0 0.00 0.00 0.00 1 1013.2
20260506162604 62 187 7.0 19.0 0.00 0.00 0.00 1 1013.2
20260506162504 63 186 7.0 19.0 0.00 0.00 0.00 1 1013.3
20260506162425 63 186 8.0 19.0 0.00 0.00 0.00 1 1013.2
20260506162306 63 184 8.0 19.0 0.00 0.00 0.00 1 1013.2
20260506162225 63 184 8.0 19.0 0.00 0.00 0.00 1 1013.2
20260506162125 63 183 9.0 19.0 0.00 0.00 0.00 1 1013.1
20260506162025 63 181 9.0 19.0 0.00 0.00 0.00 1 1013.2
20260506161904 63 182 10.0 19.0 0.00 0.00 0.00 1 1013.2
20260506161803 63 182 10.0 19.0 0.00 0.00 0.00 1 1013.4
20260506161704 63 185 10.0 19.0 0.00 0.00 0.00 1 1013.6
20260506161603 63 187 10.0 22.0 0.00 0.00 0.00 1 1013.6
20260506161504 63 186 10.0 22.0 0.00 0.00 0.00 1 1013.7
20260506161404 63 183 11.0 22.0 0.00 0.00 0.00 1 1013.8
20260506161325 63 182 11.0 22.0 0.00 0.00 0.00 1 1013.8
20260506161204 63 180 10.0 22.0 0.00 0.00 0.00 1 1013.8
20260506161104 64 180 10.0 22.0 0.00 0.00 0.00 1 1013.8
20260506161025 64 180 11.0 22.0 0.00 0.00 0.00 1 1013.6
20260506160903 64 177 11.0 22.0 0.00 0.00 0.00 1 1013.6
20260506160825 64 176 11.0 22.0 0.00 0.00 0.00 1 1013.5
20260506160704 64 173 11.0 22.0 0.00 0.00 0.00 1 1013.5
20260506160604 64 169 10.0 20.0 0.00 0.00 0.00 1 1013.5
20260506160504 64 169 10.0 20.0 0.00 0.00 0.00 1 1013.5
20260506160404 64 170 10.0 20.0 0.00 0.00 0.00 1 1013.4
20260506160304 64 172 10.0 24.0 0.00 0.00 0.00 1 1013.4
20260506160225 64 172 11.0 24.0 0.00 0.00 0.00 1 1013.4
20260506160104 64 171 11.0 24.0 0.00 0.00 0.00 1 1013.3
20260506160004 64 172 10.0 24.0 0.00 0.00 0.00 1 1013.5
20260506155903 65 174 10.0 24.0 0.00 0.00 0.00 1 1013.5
20260506155804 65 174 10.0 24.0 0.00 0.00 0.00 1 1013.6
20260506155703 65 175 10.0 24.0 0.00 0.00 0.00 1 1013.5
20260506155604 65 175 10.0 24.0 0.00 0.00 0.00 1 1013.6
20260506155504 65 174 10.0 24.0 0.00 0.00 0.00 1 1013.5
20260506155425 65 175 10.0 24.0 0.00 0.00 0.00 1 1013.5
20260506155306 65 172 9.0 22.0 0.00 0.00 0.00 1 1013.4
20260506155203 65 173 10.0 22.0 0.00 0.00 0.00 1 1013.3
20260506155104 65 174 10.0 22.0 0.00 0.00 0.00 1 1013.2
20260506155025 65 173 10.0 22.0 0.00 0.00 0.00 1 1013.1
20260506154904 65 172 11.0 23.0 0.00 0.00 0.00 1 1013.1
20260506154804 66 171 11.0 23.0 0.00 0.00 0.00 1 1013.1
20260506154704 66 172 12.0 23.0 0.00 0.00 0.00 1 1013.0
20260506154604 66 171 12.0 23.0 0.00 0.00 0.00 1 1013.0
20260506154504 66 172 12.0 23.0 0.00 0.00 0.00 1 1013.1
20260506154404 66 171 12.0 23.0 0.00 0.00 0.00 1 1013.1
20260506154304 66 171 13.0 23.0 0.00 0.00 0.00 1 1013.0
20260506154203 66 172 12.0 23.0 0.00 0.00 0.00 1 1013.0
20260506154104 66 171 12.0 23.0 0.00 0.00 0.00 1 1013.1
20260506154004 66 171 11.0 23.0 0.00 0.00 0.00 1 1013.1
20260506153904 67 172 11.0 22.0 0.00 0.00 0.00 1 1013.1
20260506153804 67 172 10.0 21.0 0.00 0.00 0.00 1 1013.1
20260506153704 67 174 10.0 19.0 0.00 0.00 0.00 1 1013.0
20260506153604 67 177 9.0 19.0 0.00 0.00 0.00 1 1012.9
20260506153504 67 177 9.0 19.0 0.00 0.00 0.00 1 1012.8
20260506153404 67 180 9.0 19.0 0.00 0.00 0.00 1 1012.6
20260506153325 67 182 8.0 19.0 0.00 0.00 0.00 1 1012.6
20260506153204 68 180 8.0 16.0 0.00 0.00 0.00 1 1012.5
20260506153104 68 182 8.0 16.0 0.00 0.00 0.00 1 1012.5
20260506153004 68 184 9.0 16.0 0.00 0.00 0.00 1 1012.4
20260506152904 68 184 8.0 16.0 0.00 0.00 0.00 1 1012.4
20260506152804 68 184 8.0 16.0 0.00 0.00 0.00 1 1012.3
20260506152704 68 182 8.0 19.0 0.00 0.00 0.00 1 1012.3
20260506152603 68 182 8.0 19.0 0.00 0.00 0.00 1 1012.3
20260506152503 68 181 8.0 19.0 0.00 0.00 0.00 1 1012.2
20260506152404 69 179 9.0 19.0 0.00 0.00 0.00 1 1012.2
20260506152325 69 178 9.0 19.0 0.00 0.00 0.00 1 1012.1
20260506152203 69 179 9.0 19.0 0.00 0.00 0.00 1 1012.1
20260506152103 70 178 9.0 19.0 0.00 0.00 0.00 1 1012.0
20260506152003 70 176 9.0 19.0 0.00 0.00 0.00 1 1012.1
20260506151925 70 176 8.0 19.0 0.00 0.00 0.00 1 1012.0
20260506151803 71 175 7.0 19.0 0.00 0.00 0.00 1 1012.0
20260506151703 71 174 7.0 18.0 0.00 0.00 0.00 1 1012.0
20260506151604 72 170 6.0 14.0 0.00 0.00 0.00 3 1012.0
20260506151503 73 168 5.0 14.0 0.00 0.00 0.00 7 1011.9
20260506151404 74 165 4.0 14.0 0.00 0.00 0.00 11 1011.9
20260506151304 75 164 3.0 14.0 0.00 0.00 0.00 1 1011.9
20260506151204 76 159 3.0 14.0 0.00 0.00 0.00 1 1011.9
20260506151104 78 149 2.0 13.0 0.00 0.00 0.00 1 1011.8
20260506151003 79 116 1.0 6.0 0.00 0.00 0.00 1 1011.7
20260506150904 79 115 1.0 6.0 0.00 0.00 0.00 1 1011.6
20260506150825 79 108 1.0 5.0 0.00 0.00 0.00 1 1011.4
20260506150704 79 105 1.0 4.0 0.00 0.00 0.00 1 1011.3
20260506150604 79 104 1.0 4.0 0.00 0.00 0.00 1 1011.3
20260506150504 79 101 0.0 3.0 0.00 0.00 0.00 1 1011.3
20260506150404 79 101 0.0 3.0 0.00 0.00 0.00 1 1011.3
20260506150305 79 101 0.0 3.0 0.00 0.00 0.00 1 1011.3
20260506150204 79 100 0.0 3.0 0.00 0.00 0.00 1 1011.2
20260506150104 79 100 0.0 3.0 0.00 0.00 0.00 1 1011.1
20260506150004 79 98 0.0 1.0 0.00 0.00 0.00 1 1011.1
20260506145904 79 0 0.0 0.0 0.00 0.00 0.00 1 1011.0
20260506145804 79 0 0.0 0.0 0.00 0.00 0.00 1 1011.1
20260506145704 79 295 0.0 2.0 0.00 0.00 0.00 1 1011.0
20260506145604 79 292 0.0 6.0 0.00 0.00 0.00 1 1011.0
20260506145504 79 286 1.0 6.0 0.00 0.00 0.00 1 1011.0
20260506145404 79 286 1.0 6.0 0.00 0.00 0.00 1 1011.0
20260506145305 79 286 1.0 6.0 0.00 0.00 0.00 1 1010.9
20260506145204 79 286 1.0 6.0 0.00 0.00 0.00 1 1010.9
20260506145104 79 286 1.0 6.0 0.00 0.00 0.00 1 1010.7
20260506145003 79 286 1.0 6.0 0.00 0.00 0.00 1 1010.8
20260506144904 79 286 1.0 6.0 0.00 0.00 0.00 1 1010.7
20260506144825 79 286 1.0 6.0 0.00 0.00 0.00 1 1010.7
20260506144725 79 286 1.0 6.0 0.00 0.00 0.00 1 1010.8
20260506144604 79 277 1.0 5.0 0.00 0.00 0.00 1 1010.8
20260506144504 79 271 1.0 4.0 0.00 0.00 0.00 1 1010.7
20260506144404 79 269 1.0 4.0 0.00 0.00 0.00 1 1010.7
20260506144325 79 269 1.0 4.0 0.00 0.00 0.00 1 1010.6
20260506144224 79 268 1.0 4.0 0.00 0.00 0.00 1 1010.6
20260506144104 79 267 1.0 4.0 0.00 0.00 0.00 1 1010.6
20260506144004 79 267 2.0 4.0 0.00 0.00 0.00 1 1010.6
20260506143925 79 266 2.0 5.0 0.00 0.00 0.00 1 1010.6
20260506143804 79 265 2.0 6.0 0.00 0.00 0.00 1 1010.5
20260506143704 79 264 3.0 7.0 0.00 0.00 0.00 1 1010.5
20260506143603 79 264 3.0 7.0 0.00 0.00 0.00 1 1010.5
20260506143504 79 263 3.0 7.0 0.00 0.00 0.00 1 1010.4
20260506143404 79 263 3.0 7.0 0.00 0.00 0.00 1 1010.4
20260506143304 79 261 3.0 7.0 0.00 0.00 0.00 1 1010.4
20260506143204 79 260 3.0 7.0 0.00 0.00 0.00 1 1010.4
20260506143104 79 259 3.0 7.0 0.00 0.00 0.00 1 1010.4
20260506143004 79 258 3.0 7.0 0.00 0.00 0.00 1 1010.4
20260506142903 79 257 3.0 7.0 0.00 0.00 0.00 1 1010.4
20260506142804 79 257 3.0 7.0 0.00 0.00 0.00 1 1010.4
20260506142704 79 257 3.0 6.0 0.00 0.00 0.00 1 1010.4
20260506142603 79 255 3.0 6.0 0.00 0.00 0.00 1 1010.3
20260506142524 79 251 3.0 6.0 0.00 0.00 0.00 1 1010.3
20260506142404 79 247 3.0 6.0 0.00 0.00 0.00 1 1010.2
20260506142325 78 238 3.0 6.0 0.00 0.00 0.00 1 1010.2
20260506142224 78 88 3.0 6.0 0.00 0.00 0.00 1 1010.1
20260506142104 78 72 3.0 6.0 0.00 0.00 0.00 1 1010.1
20260506142004 78 70 2.0 6.0 0.00 0.00 0.00 1 1010.1
20260506141903 78 71 2.0 6.0 0.00 0.00 0.00 1 1010.0
20260506141803 78 73 2.0 5.0 0.00 0.00 0.00 1 1010.0
20260506141704 78 74 2.0 5.0 0.00 0.00 0.00 1 1010.1
20260506141603 78 72 1.0 5.0 0.00 0.00 0.00 1 1010.1
20260506141504 78 68 1.0 5.0 0.00 0.00 0.00 1 1010.1
20260506141425 78 68 1.0 5.0 0.00 0.00 0.00 1 1010.1
20260506141303 78 62 0.0 4.0 0.00 0.00 0.00 1 1010.1
20260506141204 78 55 0.0 4.0 0.00 0.00 0.00 1 1010.1
20260506141104 78 0 0.0 0.0 0.00 0.00 0.00 1 1010.2
20260506141004 78 0 0.0 0.0 0.00 0.00 0.00 1 1010.3
20260506140904 78 0 0.0 0.0 0.00 0.00 0.00 1 1010.5
20260506140804 78 0 0.0 0.0 0.00 0.00 0.00 1 1010.5
20260506140725 78 0 0.0 0.0 0.00 0.00 0.00 1 1010.6
20260506140603 78 0 0.0 0.0 0.00 0.00 0.00 1 1010.7
20260506140524 78 0 0.0 0.0 0.00 0.00 0.00 1 1010.7
20260506140404 78 0 0.0 0.0 0.00 0.00 0.00 1 1010.6
20260506140304 78 0 0.0 0.0 0.00 0.00 0.00 1 1010.6
20260506140203 78 78 0.0 1.0 0.00 0.00 0.00 1 1010.7
20260506140104 78 77 0.0 1.0 0.00 0.00 0.00 1 1010.6
20260506140004 78 77 0.0 1.0 0.00 0.00 0.00 1 1010.6
20260506135904 78 77 0.0 1.0 0.00 0.00 0.00 1 1010.5
20260506135803 78 77 0.0 1.0 0.00 0.00 0.00 1 1010.4
20260506135724 78 77 0.0 1.0 0.00 0.00 0.00 1 1010.4
20260506135604 78 77 0.0 1.0 0.00 0.00 0.00 1 1010.3
20260506135504 77 77 0.0 1.0 0.00 0.00 0.00 1 1010.3
20260506135404 77 77 0.0 1.0 0.00 0.00 0.00 1 1010.2
20260506135306 77 77 0.0 1.0 0.00 0.00 0.00 1 1010.2
20260506135204 77 77 0.0 1.0 0.00 0.00 0.00 1 1010.2
20260506135104 77 77 0.0 1.0 0.00 0.00 0.00 1 1010.1
20260506135004 77 0 0.0 0.0 0.00 0.00 0.00 1 1010.1
20260506134904 77 0 0.0 0.0 0.00 0.00 0.00 1 1009.9
20260506134804 77 0 0.0 0.0 0.00 0.00 0.00 1 1009.9
20260506134704 77 0 0.0 0.0 0.00 0.00 0.00 1 1009.9
20260506134604 77 0 0.0 0.0 0.00 0.00 0.00 1 1009.9
20260506134525 77 0 0.0 0.0 0.00 0.00 0.00 1 1009.9
20260506134404 77 0 0.0 0.0 0.00 0.00 0.00 1 1009.9
20260506134304 77 0 0.0 0.0 0.00 0.00 0.00 1 1009.9
20260506134224 77 77 0.0 2.0 0.00 0.00 0.00 1 1009.9
20260506134103 77 77 0.0 3.0 0.00 0.00 0.00 1 1009.9
20260506134004 77 77 1.0 3.0 0.00 0.00 0.00 1 1009.9
20260506133904 77 77 1.0 3.0 0.00 0.00 0.00 1 1009.9
20260506133804 77 77 1.0 3.0 0.00 0.00 0.00 1 1009.9
20260506133704 77 77 1.0 3.0 0.00 0.00 0.00 1 1009.9
20260506133624 77 77 1.0 3.0 0.00 0.00 0.00 1 1009.9
20260506133504 77 77 1.0 5.0 0.00 0.00 0.00 1 1009.9
20260506133425 76 77 2.0 5.0 0.00 0.00 0.00 1 1009.9
20260506133304 76 78 2.0 5.0 0.00 0.00 0.00 1 1009.8
20260506133204 76 78 2.0 5.0 0.00 0.00 0.00 1 1009.8
20260506133104 76 78 2.0 5.0 0.00 0.00 0.00 1 1009.9
20260506133003 76 78 1.0 5.0 0.00 0.00 0.00 1 1009.9
20260506132924 76 78 1.0 5.0 0.00 0.00 0.00 1 1009.9
20260506132825 76 78 1.0 5.0 0.00 0.00 0.00 1 1009.8
20260506132704 76 78 1.0 5.0 0.00 0.00 0.00 1 1009.9
20260506132603 76 79 1.0 5.0 0.00 0.00 0.00 1 1009.8
20260506132504 76 80 1.0 3.0 0.00 0.00 0.00 1 1009.8
20260506132404 76 79 0.0 3.0 0.00 0.00 0.00 1 1009.9
20260506132307 76 78 0.0 2.0 0.00 0.00 0.00 1 1009.9
20260506132204 76 75 0.0 2.0 0.00 0.00 0.00 1 1009.9
20260506132104 76 0 0.0 0.0 0.00 0.00 0.00 1 1009.9
20260506132004 76 0 0.0 0.0 0.00 0.00 0.00 1 1009.9
20260506131904 76 0 0.0 0.0 0.00 0.00 0.00 1 1009.8
20260506131804 76 0 0.0 0.0 0.00 0.00 0.00 1 1009.8
20260506131703 76 0 0.0 0.0 0.00 0.00 0.00 1 1009.8
20260506131604 76 0 0.0 0.0 0.00 0.00 0.00 1 1009.8
20260506131504 76 0 0.0 0.0 0.00 0.00 0.00 1 1009.8
20260506131404 76 0 0.0 0.0 0.00 0.00 0.00 1 1009.9
20260506131304 76 0 0.0 0.0 0.00 0.00 0.00 1 1009.8
20260506131204 76 0 0.0 0.0 0.00 0.00 0.00 1 1009.9
20260506131104 76 0 0.0 0.0 0.00 0.00 0.00 1 1009.9
20260506131004 76 62 0.0 1.0 0.00 0.00 0.00 1 1009.9
20260506130904 76 63 0.0 3.0 0.00 0.00 0.00 1 1009.8
20260506130803 76 62 1.0 4.0 0.00 0.00 0.00 1 1009.8
20260506130703 76 63 1.0 4.0 0.00 0.00 0.00 1 1009.7
20260506130604 76 63 1.0 4.0 0.00 0.00 0.00 1 1009.7
20260506130504 76 63 1.0 4.0 0.00 0.00 0.00 1 1009.7
20260506130404 76 63 1.0 4.0 0.00 0.00 0.00 1 1009.7
20260506130303 76 63 1.0 4.0 0.00 0.00 0.00 1 1009.7
20260506130203 76 63 1.0 4.0 0.00 0.00 0.00 1 1009.6
20260506130104 76 63 1.0 4.0 0.00 0.00 0.00 1 1009.6
20260506130004 76 64 2.0 4.0 0.00 0.00 0.00 1 1009.5
20260506125903 76 64 2.0 4.0 0.00 0.00 0.00 1 1009.5
20260506125804 76 64 1.0 4.0 0.00 0.00 0.00 1 1009.5
20260506125704 76 64 1.0 4.0 0.00 0.00 0.00 1 1009.5
20260506125603 76 64 1.0 4.0 0.00 0.00 0.00 1 1009.5
20260506125504 76 64 1.0 4.0 0.00 0.00 0.00 1 1009.5
20260506125425 76 64 1.0 4.0 0.00 0.00 0.00 1 1009.5
20260506125305 76 65 1.0 4.0 0.00 0.00 0.00 1 1009.5
20260506125204 76 65 1.0 4.0 0.00 0.00 0.00 1 1009.5
20260506125104 76 65 1.0 4.0 0.00 0.00 0.00 1 1009.5
20260506125003 76 65 1.0 4.0 0.00 0.00 0.00 1 1009.5
20260506124904 76 65 1.0 2.0 0.00 0.00 0.00 1 1009.6
20260506124825 76 65 1.0 2.0 0.00 0.00 0.00 1 1009.5
20260506124704 76 65 1.0 2.0 0.00 0.00 0.00 1 1009.5
20260506124625 76 65 1.0 4.0 0.00 0.00 0.00 1 1009.5
20260506124504 76 65 1.0 4.0 0.00 0.00 0.00 1 1009.5
20260506124404 76 65 1.0 4.0 0.00 0.00 0.00 1 1009.5
20260506124303 75 66 1.0 4.0 0.00 0.00 0.00 1 1009.5
20260506124203 75 66 1.0 4.0 0.00 0.00 0.00 1 1009.5
20260506124125 75 66 1.0 4.0 0.00 0.00 0.00 1 1009.5
20260506124004 75 66 1.0 4.0 0.00 0.00 0.00 1 1009.5
20260506123904 75 66 1.0 4.0 0.00 0.00 0.00 1 1009.5
20260506123824 75 66 1.0 4.0 0.00 0.00 0.00 1 1009.5
20260506123704 75 66 0.0 4.0 0.00 0.00 0.00 1 1009.5
20260506123604 75 68 0.0 3.0 0.00 0.00 0.00 1 1009.5
20260506123525 75 68 0.0 1.0 0.00 0.00 0.00 1 1009.5
20260506123424 75 0 0.0 0.0 0.00 0.00 0.00 1 1009.5
20260506123304 75 0 0.0 0.0 0.00 0.00 0.00 1 1009.5
20260506123203 75 0 0.0 0.0 0.00 0.00 0.00 1 1009.5
20260506123103 75 0 0.0 0.0 0.00 0.00 0.00 1 1009.5
20260506123004 75 0 0.0 0.0 0.00 0.00 0.00 1 1009.5
20260506122904 75 0 0.0 0.0 0.00 0.00 0.00 1 1009.6
20260506122803 75 0 0.0 0.0 0.00 0.00 0.00 1 1009.6
20260506122725 75 0 0.0 0.0 0.00 0.00 0.00 1 1009.5
20260506122625 75 0 0.0 0.0 0.00 0.00 0.00 1 1009.6
20260506122504 75 68 0.0 3.0 0.00 0.00 0.00 1 1009.5
20260506122403 75 68 0.0 3.0 0.00 0.00 0.00 1 1009.5
20260506122306 75 68 0.0 3.0 0.00 0.00 0.00 1 1009.5
20260506122203 75 68 0.0 3.0 0.00 0.00 0.00 1 1009.5
20260506122104 75 68 0.0 3.0 0.00 0.00 0.00 1 1009.5
20260506122003 75 68 0.0 3.0 0.00 0.00 0.00 1 1009.5
20260506121924 75 68 0.0 3.0 0.00 0.00 0.00 1 1009.5
20260506121803 75 68 0.0 3.0 0.00 0.00 0.00 1 1009.5
20260506121703 75 68 0.0 3.0 0.00 0.00 0.00 1 1009.5
20260506121603 75 68 0.0 3.0 0.00 0.00 0.00 1 1009.5
20260506121525 75 68 0.0 1.0 0.00 0.00 0.00 1 1009.5
20260506121403 75 0 0.0 0.0 0.00 0.00 0.00 1 1009.4
20260506121303 75 0 0.0 0.0 0.00 0.00 0.00 1 1009.4
20260506121204 75 0 0.0 0.0 0.00 0.00 0.00 1 1009.5
20260506121125 75 0 0.0 0.0 0.00 0.00 0.00 1 1009.5
20260506121004 75 0 0.0 0.0 0.00 0.00 0.00 1 1009.4
20260506120903 75 0 0.0 0.0 0.00 0.00 0.00 1 1009.4
20260506120804 75 0 0.0 0.0 0.00 0.00 0.00 1 1009.4
20260506120704 75 0 0.0 0.0 0.00 0.00 0.00 1 1009.4
20260506120603 75 0 0.0 0.0 0.00 0.00 0.00 1 1009.4
20260506120504 75 0 0.0 0.0 0.00 0.00 0.00 1 1009.4
20260506120424 75 0 0.0 0.0 0.00 0.00 0.00 1 1009.4
20260506120303 75 0 0.0 0.0 0.00 0.00 0.00 1 1009.3
20260506120204 75 0 0.0 0.0 0.00 0.00 0.00 1 1009.3
20260506120103 75 0 0.0 0.0 0.00 0.00 0.00 1 1009.3
20260506120004 75 0 0.0 0.0 0.00 0.00 0.00 1 1009.3
20260506115925 75 0 0.0 0.0 0.00 0.00 0.00 1 1009.3
20260506115803 75 0 0.0 0.0 0.00 0.00 0.00 1 1009.3
20260506115725 75 0 0.0 0.0 0.00 0.00 0.00 1 1009.3
20260506115603 75 0 0.0 0.0 0.00 0.00 0.00 1 1009.2
20260506115504 75 0 0.0 0.0 0.00 0.00 0.00 1 1009.3
20260506115404 75 0 0.0 0.0 0.00 0.00 0.00 1 1009.3
20260506115306 75 0 0.0 0.0 0.00 0.00 0.00 1 1009.3
20260506115204 75 0 0.0 0.0 0.00 0.00 0.00 1 1009.3
20260506115103 75 0 0.0 0.0 0.00 0.00 0.00 1 1009.3
20260506115025 75 0 0.0 0.0 0.00 0.00 0.00 1 1009.3
20260506114904 76 0 0.0 0.0 0.00 0.00 0.00 1 1009.3
20260506114803 76 0 0.0 0.0 0.00 0.00 0.00 1 1009.2
20260506114704 76 0 0.0 0.0 0.00 0.00 0.00 1 1009.3
20260506114603 76 0 0.0 0.0 0.00 0.00 0.00 1 1009.3
20260506114503 76 0 0.0 0.0 0.00 0.00 0.00 1 1009.3
20260506114403 76 0 0.0 0.0 0.00 0.00 0.00 1 1009.3
20260506114303 76 0 0.0 0.0 0.00 0.00 0.00 1 1009.3
20260506114225 76 0 0.0 0.0 0.00 0.00 0.00 1 1009.4
20260506114103 76 0 0.0 0.0 0.00 0.00 0.00 1 1009.4
20260506114003 76 0 0.0 0.0 0.00 0.00 0.00 1 1009.4
20260506113904 76 0 0.0 0.0 0.00 0.00 0.00 1 1009.4
20260506113804 76 0 0.0 0.0 0.00 0.00 0.00 1 1009.5
20260506113703 76 0 0.0 0.0 0.00 0.00 0.00 1 1009.4
20260506113604 76 0 0.0 0.0 0.00 0.00 0.00 1 1009.4
20260506113503 76 68 0.0 2.0 0.00 0.00 0.00 1 1009.4
20260506113403 76 68 0.0 4.0 0.00 0.00 0.00 1 1009.4
20260506113304 76 68 0.0 4.0 0.00 0.00 0.00 1 1009.4
20260506113204 76 68 0.0 4.0 0.00 0.00 0.00 1 1009.4
20260506113103 76 68 1.0 4.0 0.00 0.00 0.00 1 1009.4
20260506113003 76 68 1.0 4.0 0.00 0.00 0.00 1 1009.4
20260506112903 76 68 1.0 4.0 0.00 0.00 0.00 1 1009.3
20260506112804 76 68 1.0 4.0 0.00 0.00 0.00 1 1009.3
20260506112703 76 68 1.0 4.0 0.00 0.00 0.00 1 1009.2
20260506112603 76 68 1.0 4.0 0.00 0.00 0.00 1 1009.3
20260506112503 76 68 1.0 4.0 0.00 0.00 0.00 1 1009.3
20260506112404 76 68 1.0 4.0 0.00 0.00 0.00 1 1009.3
20260506112324 76 69 1.0 4.0 0.00 0.00 0.00 1 1009.4
20260506112204 76 69 1.0 4.0 0.00 0.00 0.00 1 1009.3
20260506112103 76 69 1.0 4.0 0.00 0.00 0.00 1 1009.3
20260506112003 76 69 1.0 4.0 0.00 0.00 0.00 1 1009.3
20260506111903 76 69 1.0 3.0 0.00 0.00 0.00 1 1009.3
20260506111804 76 69 1.0 3.0 0.00 0.00 0.00 1 1009.3
20260506111703 76 69 1.0 3.0 0.00 0.00 0.00 1 1009.3
20260506111604 76 69 1.0 3.0 0.00 0.00 0.00 1 1009.3
20260506111504 76 69 1.0 3.0 0.00 0.00 0.00 1 1009.3
20260506111404 76 69 1.0 3.0 0.00 0.00 0.00 1 1009.3
20260506111303 76 69 1.0 3.0 0.00 0.00 0.00 1 1009.3
20260506111225 76 69 1.0 3.0 0.00 0.00 0.00 1 1009.3
20260506111103 76 69 1.0 3.0 0.00 0.00 0.00 1 1009.3
20260506111003 76 69 1.0 3.0 0.00 0.00 0.00 1 1009.3
20260506110903 76 70 1.0 3.0 0.00 0.00 0.00 1 1009.3
20260506110804 76 70 1.0 3.0 0.00 0.00 0.00 1 1009.3
20260506110703 76 70 0.0 2.0 0.00 0.00 0.00 1 1009.3
20260506110603 76 70 0.0 2.0 0.00 0.00 0.00 1 1009.3
20260506110503 76 70 0.0 2.0 0.00 0.00 0.00 1 1009.3
20260506110404 76 70 0.0 2.0 0.00 0.00 0.00 1 1009.3
20260506110303 76 0 0.0 0.0 0.00 0.00 0.00 1 1009.3
20260506110203 76 0 0.0 0.0 0.00 0.00 0.00 1 1009.2
20260506110103 76 0 0.0 0.0 0.00 0.00 0.00 1 1009.3
20260506110004 76 0 0.0 0.0 0.00 0.00 0.00 1 1009.4
20260506105903 76 0 0.0 0.0 0.00 0.00 0.00 1 1009.3
20260506105804 76 0 0.0 0.0 0.00 0.00 0.00 1 1009.3
20260506105703 76 0 0.0 0.0 0.00 0.00 0.00 1 1009.3
20260506105604 76 63 0.0 1.0 0.00 0.00 0.00 1 1009.3
20260506105503 76 64 0.0 2.0 0.00 0.00 0.00 1 1009.3
20260506105403 76 64 0.0 2.0 0.00 0.00 0.00 1 1009.2
20260506105305 76 64 0.0 3.0 0.00 0.00 0.00 1 1009.2
20260506105224 76 64 0.0 3.0 0.00 0.00 0.00 1 1009.2
20260506105104 76 64 0.0 3.0 0.00 0.00 0.00 1 1009.2
20260506105003 76 64 1.0 3.0 0.00 0.00 0.00 1 1009.2
20260506104925 76 64 1.0 3.0 0.00 0.00 0.00 1 1009.2
20260506104824 76 64 1.0 4.0 0.00 0.00 0.00 1 1009.2
20260506104725 76 64 1.0 5.0 0.00 0.00 0.00 1 1009.1
20260506104603 76 64 1.0 5.0 0.00 0.00 0.00 1 1009.1
20260506104504 76 64 1.0 5.0 0.00 0.00 0.00 1 1009.1
20260506104424 76 64 1.0 5.0 0.00 0.00 0.00 1 1009.1
20260506104325 76 64 1.0 5.0 0.00 0.00 0.00 1 1009.1
20260506104225 76 65 1.0 5.0 0.00 0.00 0.00 1 1009.1
20260506104103 76 65 1.0 5.0 0.00 0.00 0.00 1 1009.0
20260506104003 76 65 1.0 5.0 0.00 0.00 0.00 1 1009.0
20260506103904 76 64 0.0 5.0 0.00 0.00 0.00 1 1008.9
20260506103804 76 0 0.0 0.0 0.00 0.00 0.00 1 1009.0
20260506103704 76 0 0.0 0.0 0.00 0.00 0.00 1 1009.0
20260506103604 76 63 0.0 5.0 0.00 0.00 0.00 1 1009.0
20260506103504 76 66 1.0 7.0 0.00 0.00 0.00 1 1009.0
20260506103403 76 64 1.0 7.0 0.00 0.00 0.00 1 1009.0
20260506103325 76 63 1.0 7.0 0.00 0.00 0.00 1 1009.0
20260506103203 76 63 1.0 7.0 0.00 0.00 0.00 1 1009.0
20260506103103 76 63 1.0 7.0 0.00 0.00 0.00 1 1009.0
20260506103003 76 63 1.0 7.0 0.00 0.00 0.00 1 1009.0
20260506102925 76 64 2.0 7.0 0.00 0.00 0.00 1 1009.0
20260506102803 76 66 2.0 7.0 0.00 0.00 0.00 1 1009.1
20260506102703 76 66 2.0 7.0 0.00 0.00 0.00 1 1009.1
20260506102625 76 67 2.0 7.0 0.00 0.00 0.00 1 1009.1
20260506102503 76 67 2.0 6.0 0.00 0.00 0.00 1 1009.1
20260506102403 76 62 2.0 6.0 0.00 0.00 0.00 1 1009.1
20260506102305 76 62 2.0 6.0 0.00 0.00 0.00 1 1009.1
20260506102225 76 61 2.0 6.0 0.00 0.00 0.00 1 1009.1
20260506102124 76 61 2.0 6.0 0.00 0.00 0.00 1 1009.1
20260506102024 76 62 2.0 6.0 0.00 0.00 0.00 1 1009.0
20260506101904 76 62 2.0 6.0 0.00 0.00 0.00 1 1009.0
20260506101803 76 62 2.0 6.0 0.00 0.00 0.00 1 1009.0
20260506101703 76 62 2.0 6.0 0.00 0.00 0.00 1 1009.0